Time,TemperatureF,DewpointF,PressureIn,WindDirection,WindDirectionDegrees,WindSpeedMPH,WindSpeedGustMPH,Humidity,HourlyPrecipIn,Conditions,Clouds,dailyrainin,SoftwareType,DateUTC
2013-03-01 00:01:00,50.0,49.2,30.31,East,95,0.0,0.0,97,0.10,,,0.64,Wunderground v.1.15,2013-03-01 08:01:00,
2013-03-01 00:03:00,50.0,49.2,30.31,ENE,63,0.0,0.0,97,0.08,,,0.00,Wunderground v.1.15,2013-03-01 08:03:00,
2013-03-01 00:06:00,50.0,49.2,30.31,NE,44,0.0,0.0,97,0.06,,,0.00,Wunderground v.1.15,2013-03-01 08:06:00,
2013-03-01 00:07:00,50.0,49.2,30.31,NE,44,0.0,0.0,97,0.05,,,0.00,Wunderground v.1.15,2013-03-01 08:07:00,
2013-03-01 00:09:00,50.0,49.2,30.31,ENE,67,0.0,0.0,97,0.04,,,0.00,Wunderground v.1.15,2013-03-01 08:09:00,
2013-03-01 00:12:00,50.0,49.2,30.31,ENE,59,0.0,0.0,97,0.04,,,0.00,Wunderground v.1.15,2013-03-01 08:12:00,
2013-03-01 00:14:00,50.0,48.9,30.31,NNE,30,0.0,0.0,96,0.00,,,0.00,Wunderground v.1.15,2013-03-01 08:14:00,
2013-03-01 00:15:00,50.0,48.9,30.31,NNE,30,0.0,0.0,96,0.00,,,0.00,Wunderground v.1.15,2013-03-01 08:15:00,
2013-03-01 00:21:00,50.0,48.9,30.30,ENE,66,0.0,0.0,96,0.00,,,0.00,Wunderground v.1.15,2013-03-01 08:21:00,
2013-03-01 00:22:00,50.0,48.9,30.30,ENE,66,0.0,0.0,96,0.00,,,0.00,Wunderground v.1.15,2013-03-01 08:22:00,
2013-03-01 00:27:00,50.0,49.2,30.30,NW,317,0.0,0.0,97,0.00,,,0.00,Wunderground v.1.15,2013-03-01 08:27:00,
2013-03-01 00:28:00,50.0,48.9,30.30,NW,317,0.0,0.0,96,0.00,,,0.00,Wunderground v.1.15,2013-03-01 08:28:00,
2013-03-01 00:30:00,50.0,48.9,30.30,West,263,0.0,0.0,96,0.00,,,0.00,Wunderground v.1.15,2013-03-01 08:30:00,
2013-03-01 00:31:00,50.0,49.2,30.30,West,264,0.0,0.0,97,0.00,,,0.00,Wunderground v.1.15,2013-03-01 08:31:00,
2013-03-01 00:35:00,50.0,49.2,30.30,NNE,23,0.0,0.0,97,0.00,,,0.00,Wunderground v.1.15,2013-03-01 08:35:00,
2013-03-01 00:37:00,50.0,48.9,30.30,NNE,23,0.0,0.0,96,0.00,,,0.01,Wunderground v.1.15,2013-03-01 08:37:00,
2013-03-01 00:38:00,50.0,48.9,30.30,NNE,23,0.0,0.0,96,0.00,,,0.01,Wunderground v.1.15,2013-03-01 08:38:00,
2013-03-01 00:39:00,50.0,48.9,30.30,NNE,21,0.0,0.0,96,0.00,,,0.01,Wunderground v.1.15,2013-03-01 08:39:00,
2013-03-01 00:44:00,50.0,48.9,30.30,NE,34,0.0,0.0,96,0.00,,,0.01,Wunderground v.1.15,2013-03-01 08:44:00,
2013-03-01 00:45:00,50.0,49.2,30.30,NNE,17,0.0,0.0,97,0.00,,,0.01,Wunderground v.1.15,2013-03-01 08:45:00,
2013-03-01 00:46:00,50.0,48.9,30.30,East,92,0.0,0.0,96,0.00,,,0.01,Wunderground v.1.15,2013-03-01 08:46:00,
2013-03-01 00:48:00,50.0,49.2,30.30,NNE,24,1.0,1.0,97,0.00,,,0.01,Wunderground v.1.15,2013-03-01 08:48:00,
2013-03-01 00:52:00,50.1,49.0,30.30,ESE,123,0.0,0.0,96,0.00,,,0.01,Wunderground v.1.15,2013-03-01 08:52:00,
2013-03-01 00:53:00,50.1,49.3,30.30,ESE,123,0.0,0.0,97,0.00,,,0.01,Wunderground v.1.15,2013-03-01 08:53:00,
2013-03-01 00:57:00,50.1,49.3,30.30,East,83,0.0,1.0,97,0.00,,,0.01,Wunderground v.1.15,2013-03-01 08:57:00,
2013-03-01 00:58:00,50.1,49.3,30.30,East,83,0.0,1.0,97,0.00,,,0.01,Wunderground v.1.15,2013-03-01 08:58:00,
2013-03-01 00:59:00,50.1,49.3,30.30,NE,42,0.0,1.0,97,0.00,,,0.01,Wunderground v.1.15,2013-03-01 08:59:00,
2013-03-01 01:00:00,50.1,49.0,30.30,NE,42,0.0,0.0,96,0.00,,,0.01,Wunderground v.1.15,2013-03-01 09:00:00,
2013-03-01 01:06:00,50.1,49.3,30.30,WSW,244,1.0,1.0,97,0.00,,,0.01,Wunderground v.1.15,2013-03-01 09:06:00,
2013-03-01 01:09:00,50.1,49.3,30.30,ESE,121,0.0,1.0,97,0.00,,,0.01,Wunderground v.1.15,2013-03-01 09:09:00,
2013-03-01 01:10:00,50.1,49.3,30.30,ESE,121,0.0,0.0,97,0.00,,,0.01,Wunderground v.1.15,2013-03-01 09:10:00,
2013-03-01 01:11:00,50.1,49.3,30.30,ESE,121,0.0,0.0,97,0.00,,,0.01,Wunderground v.1.15,2013-03-01 09:11:00,
2013-03-01 01:13:00,50.1,49.3,30.30,SE,142,0.0,1.0,97,0.00,,,0.01,Wunderground v.1.15,2013-03-01 09:13:00,
2013-03-01 01:17:00,50.1,49.3,30.30,NNE,17,0.0,1.0,97,0.00,,,0.01,Wunderground v.1.15,2013-03-01 09:17:00,
2013-03-01 01:18:00,50.3,49.5,30.30,SE,134,1.0,1.0,97,0.00,,,0.01,Wunderground v.1.15,2013-03-01 09:18:00,
2013-03-01 01:20:00,50.3,49.5,30.30,South,182,0.0,0.0,97,0.00,,,0.01,Wunderground v.1.15,2013-03-01 09:20:00,
2013-03-01 01:22:00,50.3,49.2,30.30,SSE,153,4.0,4.0,96,0.00,,,0.01,Wunderground v.1.15,2013-03-01 09:22:00,
2013-03-01 01:24:00,50.3,49.5,30.30,SE,128,0.0,4.0,97,0.00,,,0.01,Wunderground v.1.15,2013-03-01 09:24:00,
2013-03-01 01:27:00,50.3,49.5,30.30,SE,136,1.0,4.0,97,0.00,,,0.01,Wunderground v.1.15,2013-03-01 09:27:00,
2013-03-01 01:30:00,50.3,49.2,30.30,NNE,22,0.0,1.0,96,0.00,,,0.01,Wunderground v.1.15,2013-03-01 09:30:00,
2013-03-01 01:33:00,50.4,49.6,30.30,SE,144,0.0,1.0,97,0.00,,,0.01,Wunderground v.1.15,2013-03-01 09:33:00,
2013-03-01 01:35:00,50.4,49.3,30.30,East,83,0.0,1.0,96,0.00,,,0.01,Wunderground v.1.15,2013-03-01 09:35:00,
2013-03-01 01:36:00,50.4,49.3,30.30,East,83,0.0,1.0,96,0.00,,,0.01,Wunderground v.1.15,2013-03-01 09:36:00,
2013-03-01 01:38:00,50.4,49.3,30.30,SE,130,0.0,1.0,96,0.00,,,0.01,Wunderground v.1.15,2013-03-01 09:38:00,
2013-03-01 01:42:00,50.4,49.3,30.30,ESE,109,0.0,1.0,96,0.00,,,0.01,Wunderground v.1.15,2013-03-01 09:42:00,
2013-03-01 01:46:00,50.4,49.3,30.30,East,90,5.0,5.0,96,0.00,,,0.01,Wunderground v.1.15,2013-03-01 09:46:00,
2013-03-01 01:47:00,50.4,49.3,30.30,East,99,0.0,5.0,96,0.00,,,0.01,Wunderground v.1.15,2013-03-01 09:47:00,
2013-03-01 01:48:00,50.4,49.3,30.30,NE,39,2.0,5.0,96,0.00,,,0.01,Wunderground v.1.15,2013-03-01 09:48:00,
2013-03-01 01:51:00,50.4,49.3,30.30,ENE,70,0.0,1.0,96,0.00,,,0.01,Wunderground v.1.15,2013-03-01 09:51:00,
2013-03-01 01:53:00,50.4,49.3,30.30,NE,55,2.0,2.0,96,0.00,,,0.01,Wunderground v.1.15,2013-03-01 09:53:00,
2013-03-01 01:58:00,50.6,49.5,30.30,SE,133,0.0,2.0,96,0.00,,,0.01,Wunderground v.1.15,2013-03-01 09:58:00,
2013-03-01 01:59:00,50.6,49.5,30.30,SE,133,1.0,2.0,96,0.00,,,0.01,Wunderground v.1.15,2013-03-01 09:59:00,
2013-03-01 02:00:00,50.6,49.5,30.30,SE,134,0.0,0.0,96,0.00,,,0.01,Wunderground v.1.15,2013-03-01 10:00:00,
2013-03-01 02:01:00,50.6,49.5,30.30,North,10,1.0,2.0,96,0.00,,,0.01,Wunderground v.1.15,2013-03-01 10:01:00,
2013-03-01 02:03:00,50.6,49.5,30.30,NE,42,2.0,2.0,96,0.00,,,0.01,Wunderground v.1.15,2013-03-01 10:03:00,
2013-03-01 02:04:00,50.6,49.5,30.30,SE,142,1.0,4.0,96,0.00,,,0.01,Wunderground v.1.15,2013-03-01 10:04:00,
2013-03-01 02:06:00,50.6,49.5,30.30,SE,142,0.0,4.0,96,0.00,,,0.01,Wunderground v.1.15,2013-03-01 10:06:00,
2013-03-01 02:09:00,50.6,49.5,30.30,SE,133,1.0,4.0,96,0.00,,,0.01,Wunderground v.1.15,2013-03-01 10:09:00,
2013-03-01 02:12:00,50.6,49.5,30.30,SE,134,0.0,2.0,96,0.00,,,0.01,Wunderground v.1.15,2013-03-01 10:12:00,
2013-03-01 02:14:00,50.6,49.5,30.30,NE,42,0.0,4.0,96,0.00,,,0.01,Wunderground v.1.15,2013-03-01 10:14:00,
2013-03-01 02:15:00,50.6,49.5,30.30,ESE,113,0.0,4.0,96,0.00,,,0.01,Wunderground v.1.15,2013-03-01 10:15:00,
2013-03-01 02:17:00,50.6,49.5,30.30,NNE,19,0.0,4.0,96,0.00,,,0.01,Wunderground v.1.15,2013-03-01 10:17:00,
2013-03-01 02:20:00,50.6,49.5,30.30,ENE,62,0.0,0.0,96,0.00,,,0.01,Wunderground v.1.15,2013-03-01 10:20:00,
2013-03-01 02:22:00,50.6,49.5,30.30,East,90,0.0,0.0,96,0.00,,,0.01,Wunderground v.1.15,2013-03-01 10:22:00,
2013-03-01 02:25:00,50.6,49.5,30.30,SE,131,0.0,1.0,96,0.00,,,0.01,Wunderground v.1.15,2013-03-01 10:25:00,
2013-03-01 02:27:00,50.6,49.5,30.30,South,182,1.0,4.0,96,0.00,,,0.01,Wunderground v.1.15,2013-03-01 10:27:00,
2013-03-01 02:30:00,50.6,49.5,30.30,East,98,0.0,2.0,96,0.00,,,0.01,Wunderground v.1.15,2013-03-01 10:30:00,
2013-03-01 02:31:00,50.6,49.5,30.30,NNE,25,1.0,2.0,96,0.00,,,0.01,Wunderground v.1.15,2013-03-01 10:31:00,
2013-03-01 02:32:00,50.6,49.5,30.30,NE,44,0.0,7.0,96,0.00,,,0.01,Wunderground v.1.15,2013-03-01 10:32:00,
2013-03-01 02:33:00,50.6,49.5,30.30,South,188,0.0,7.0,96,0.00,,,0.01,Wunderground v.1.15,2013-03-01 10:33:00,
2013-03-01 02:36:00,50.7,49.6,30.30,NNE,17,0.0,7.0,96,0.00,,,0.01,Wunderground v.1.15,2013-03-01 10:36:00,
2013-03-01 02:37:00,50.7,49.6,30.30,SSW,201,0.0,7.0,96,0.00,,,0.01,Wunderground v.1.15,2013-03-01 10:37:00,
2013-03-01 02:38:00,50.7,49.6,30.30,ENE,75,0.0,7.0,96,0.00,,,0.01,Wunderground v.1.15,2013-03-01 10:38:00,
2013-03-01 02:41:00,50.7,49.6,30.30,North,355,0.0,6.0,96,0.00,,,0.01,Wunderground v.1.15,2013-03-01 10:41:00,
2013-03-01 02:42:00,50.7,49.6,30.30,NNW,327,0.0,6.0,96,0.00,,,0.01,Wunderground v.1.15,2013-03-01 10:42:00,
2013-03-01 02:43:00,50.7,49.6,30.30,NNW,327,0.0,6.0,96,0.00,,,0.01,Wunderground v.1.15,2013-03-01 10:43:00,
2013-03-01 02:47:00,50.7,49.6,30.30,North,5,0.0,6.0,96,0.00,,,0.01,Wunderground v.1.15,2013-03-01 10:47:00,
2013-03-01 02:48:00,50.7,49.6,30.30,SSE,155,0.0,6.0,96,0.00,,,0.01,Wunderground v.1.15,2013-03-01 10:48:00,
2013-03-01 02:52:00,50.7,49.6,30.30,NNE,31,0.0,8.0,96,0.00,,,0.01,Wunderground v.1.15,2013-03-01 10:52:00,
2013-03-01 02:53:00,50.7,49.6,30.30,NNE,31,0.0,8.0,96,0.00,,,0.01,Wunderground v.1.15,2013-03-01 10:53:00,
2013-03-01 02:54:00,50.7,49.6,30.30,NNE,26,1.0,8.0,96,0.00,,,0.01,Wunderground v.1.15,2013-03-01 10:54:00,
2013-03-01 02:58:00,50.7,49.6,30.30,SE,144,0.0,8.0,96,0.00,,,0.01,Wunderground v.1.15,2013-03-01 10:58:00,
2013-03-01 02:59:00,50.7,49.6,30.30,ENE,64,0.0,8.0,96,0.00,,,0.01,Wunderground v.1.15,2013-03-01 10:59:00,
2013-03-01 03:00:00,50.7,49.6,30.30,South,170,0.0,1.0,96,0.00,,,0.01,Wunderground v.1.15,2013-03-01 11:00:00,
2013-03-01 03:03:00,50.7,49.6,30.30,NNW,338,0.0,5.0,96,0.00,,,0.01,Wunderground v.1.15,2013-03-01 11:03:00,
2013-03-01 03:04:00,50.9,49.8,30.30,East,82,0.0,5.0,96,0.00,,,0.01,Wunderground v.1.15,2013-03-01 11:04:00,
2013-03-01 03:05:00,50.9,49.8,30.30,NNE,28,0.0,5.0,96,0.00,,,0.01,Wunderground v.1.15,2013-03-01 11:05:00,
2013-03-01 03:09:00,50.9,49.8,30.30,North,355,0.0,5.0,96,0.00,,,0.01,Wunderground v.1.15,2013-03-01 11:09:00,
2013-03-01 03:10:00,50.9,49.8,30.30,NE,55,1.0,1.0,96,0.00,,,0.01,Wunderground v.1.15,2013-03-01 11:10:00,
2013-03-01 03:12:00,50.9,49.8,30.30,ESE,106,0.0,2.0,96,0.00,,,0.01,Wunderground v.1.15,2013-03-01 11:12:00,
2013-03-01 03:14:00,50.9,49.8,30.30,NE,43,1.0,2.0,96,0.00,,,0.01,Wunderground v.1.15,2013-03-01 11:14:00,
2013-03-01 03:15:00,50.9,49.8,30.30,East,93,0.0,2.0,96,0.00,,,0.01,Wunderground v.1.15,2013-03-01 11:15:00,
2013-03-01 03:16:00,50.9,49.8,30.30,ENE,74,0.0,2.0,96,0.00,,,0.01,Wunderground v.1.15,2013-03-01 11:16:00,
2013-03-01 03:17:00,50.9,49.8,30.30,SE,146,1.0,2.0,96,0.00,,,0.01,Wunderground v.1.15,2013-03-01 11:17:00,
2013-03-01 03:19:00,50.9,49.8,30.30,ESE,109,0.0,2.0,96,0.00,,,0.01,Wunderground v.1.15,2013-03-01 11:19:00,
2013-03-01 03:20:00,50.9,49.8,30.30,SSW,198,0.0,0.0,96,0.00,,,0.01,Wunderground v.1.15,2013-03-01 11:20:00,
2013-03-01 03:21:00,50.9,49.8,30.30,SSW,198,0.0,0.0,96,0.00,,,0.01,Wunderground v.1.15,2013-03-01 11:21:00,
2013-03-01 03:23:00,50.9,49.8,30.30,South,180,0.0,0.0,96,0.00,,,0.01,Wunderground v.1.15,2013-03-01 11:23:00,
2013-03-01 03:25:00,50.9,49.8,30.30,NE,37,0.0,8.0,96,0.00,,,0.01,Wunderground v.1.15,2013-03-01 11:25:00,
2013-03-01 03:26:00,50.9,49.8,30.30,NE,49,3.0,8.0,96,0.00,,,0.01,Wunderground v.1.15,2013-03-01 11:26:00,
2013-03-01 03:28:00,50.9,49.8,30.30,NE,39,0.0,8.0,96,0.00,,,0.01,Wunderground v.1.15,2013-03-01 11:28:00,
2013-03-01 03:30:00,50.9,49.8,30.30,East,98,0.0,2.0,96,0.00,,,0.01,Wunderground v.1.15,2013-03-01 11:30:00,
2013-03-01 03:31:00,50.9,49.8,30.30,ENE,67,0.0,2.0,96,0.00,,,0.01,Wunderground v.1.15,2013-03-01 11:31:00,
2013-03-01 03:32:00,50.9,49.8,30.30,ENE,67,0.0,2.0,96,0.00,,,0.01,Wunderground v.1.15,2013-03-01 11:32:00,
2013-03-01 03:33:00,50.9,49.8,30.30,NNE,26,0.0,2.0,96,0.00,,,0.01,Wunderground v.1.15,2013-03-01 11:33:00,
2013-03-01 03:35:00,50.9,49.8,30.30,NNE,26,0.0,2.0,96,0.00,,,0.01,Wunderground v.1.15,2013-03-01 11:35:00,
2013-03-01 03:37:00,50.9,49.8,30.30,South,176,0.0,2.0,96,0.00,,,0.01,Wunderground v.1.15,2013-03-01 11:37:00,
2013-03-01 03:38:00,50.9,49.8,30.30,East,84,0.0,2.0,96,0.00,,,0.01,Wunderground v.1.15,2013-03-01 11:38:00,
2013-03-01 03:40:00,50.9,49.8,30.30,East,86,0.0,0.0,96,0.00,,,0.01,Wunderground v.1.15,2013-03-01 11:40:00,
2013-03-01 03:42:00,50.9,49.5,30.30,NE,45,0.0,0.0,95,0.00,,,0.01,Wunderground v.1.15,2013-03-01 11:42:00,
2013-03-01 03:45:00,50.9,49.5,30.30,ENE,71,0.0,1.0,95,0.00,,,0.01,Wunderground v.1.15,2013-03-01 11:45:00,
2013-03-01 03:46:00,50.9,49.5,30.29,NE,38,0.0,1.0,95,0.00,,,0.01,Wunderground v.1.15,2013-03-01 11:46:00,
2013-03-01 03:47:00,50.9,49.5,30.29,ESE,120,0.0,1.0,95,0.00,,,0.01,Wunderground v.1.15,2013-03-01 11:47:00,
2013-03-01 03:48:00,50.9,49.5,30.29,SSE,147,2.0,5.0,95,0.00,,,0.01,Wunderground v.1.15,2013-03-01 11:48:00,
2013-03-01 03:50:00,50.9,49.5,30.29,NE,40,0.0,1.0,95,0.00,,,0.01,Wunderground v.1.15,2013-03-01 11:50:00,
2013-03-01 03:51:00,50.9,49.5,30.29,NE,42,1.0,1.0,95,0.00,,,0.01,Wunderground v.1.15,2013-03-01 11:51:00,
2013-03-01 03:52:00,50.9,49.5,30.29,NE,38,0.0,6.0,95,0.00,,,0.01,Wunderground v.1.15,2013-03-01 11:52:00,
2013-03-01 03:53:00,50.9,49.5,30.29,ENE,78,0.0,6.0,95,0.00,,,0.01,Wunderground v.1.15,2013-03-01 11:53:00,
2013-03-01 03:55:00,50.9,49.5,30.29,ENE,63,1.0,6.0,95,0.00,,,0.01,Wunderground v.1.15,2013-03-01 11:55:00,
2013-03-01 03:56:00,50.9,49.5,30.29,South,177,2.0,6.0,95,0.00,,,0.01,Wunderground v.1.15,2013-03-01 11:56:00,
2013-03-01 03:58:00,50.9,49.5,30.29,SE,128,1.0,6.0,95,0.00,,,0.01,Wunderground v.1.15,2013-03-01 11:58:00,
2013-03-01 03:59:00,50.9,49.5,30.29,ESE,123,0.0,6.0,95,0.00,,,0.01,Wunderground v.1.15,2013-03-01 11:59:00,
2013-03-01 04:01:00,50.9,49.5,30.29,NNE,27,0.0,1.0,95,0.00,,,0.01,Wunderground v.1.15,2013-03-01 12:01:00,
2013-03-01 04:03:00,50.9,49.5,30.29,ESE,102,1.0,5.0,95,0.00,,,0.01,Wunderground v.1.15,2013-03-01 12:03:00,
2013-03-01 04:04:00,50.9,49.5,30.29,SSE,165,0.0,8.0,95,0.00,,,0.01,Wunderground v.1.15,2013-03-01 12:04:00,
2013-03-01 04:06:00,51.0,49.6,30.29,NNE,19,2.0,8.0,95,0.00,,,0.01,Wunderground v.1.15,2013-03-01 12:06:00,
2013-03-01 04:07:00,51.0,49.6,30.29,SE,144,0.0,8.0,95,0.00,,,0.01,Wunderground v.1.15,2013-03-01 12:07:00,
2013-03-01 04:08:00,51.0,49.6,30.29,ESE,119,0.0,8.0,95,0.00,,,0.01,Wunderground v.1.15,2013-03-01 12:08:00,
2013-03-01 04:09:00,51.0,49.6,30.29,SSW,196,0.0,1.0,95,0.00,,,0.01,Wunderground v.1.15,2013-03-01 12:09:00,
2013-03-01 04:12:00,51.0,49.6,30.29,NW,323,2.0,2.0,95,0.00,,,0.01,Wunderground v.1.15,2013-03-01 12:12:00,
2013-03-01 04:13:00,51.0,49.6,30.29,SSE,154,1.0,2.0,95,0.00,,,0.01,Wunderground v.1.15,2013-03-01 12:13:00,
2013-03-01 04:15:00,51.0,49.6,30.29,ESE,119,6.0,6.0,95,0.00,,,0.01,Wunderground v.1.15,2013-03-01 12:15:00,
2013-03-01 04:17:00,51.0,49.6,30.28,NE,38,2.0,6.0,95,0.00,,,0.01,Wunderground v.1.15,2013-03-01 12:17:00,
2013-03-01 04:18:00,51.0,49.6,30.28,ESE,121,2.0,7.0,95,0.00,,,0.01,Wunderground v.1.15,2013-03-01 12:18:00,
2013-03-01 04:22:00,51.0,49.3,30.28,NNE,13,4.0,8.0,94,0.00,,,0.01,Wunderground v.1.15,2013-03-01 12:22:00,
2013-03-01 04:23:00,51.0,49.3,30.28,NE,52,3.0,8.0,94,0.00,,,0.01,Wunderground v.1.15,2013-03-01 12:23:00,
2013-03-01 04:24:00,51.0,49.3,30.28,NE,40,0.0,8.0,94,0.00,,,0.01,Wunderground v.1.15,2013-03-01 12:24:00,
2013-03-01 04:27:00,51.2,49.5,30.28,SSE,157,0.0,8.0,94,0.00,,,0.01,Wunderground v.1.15,2013-03-01 12:27:00,
2013-03-01 04:29:00,51.0,49.3,30.28,North,350,1.0,8.0,94,0.00,,,0.01,Wunderground v.1.15,2013-03-01 12:29:00,
2013-03-01 04:30:00,51.0,49.3,30.28,SW,222,0.0,2.0,94,0.00,,,0.01,Wunderground v.1.15,2013-03-01 12:30:00,
2013-03-01 04:32:00,51.0,49.3,30.28,ENE,64,5.0,5.0,94,0.00,,,0.01,Wunderground v.1.15,2013-03-01 12:32:00,
2013-03-01 04:33:00,51.0,49.3,30.28,SE,141,2.0,5.0,94,0.00,,,0.01,Wunderground v.1.15,2013-03-01 12:33:00,
2013-03-01 04:34:00,51.2,49.5,30.28,ESE,105,3.0,6.0,94,0.00,,,0.01,Wunderground v.1.15,2013-03-01 12:34:00,
2013-03-01 04:35:00,51.2,49.5,30.28,NNE,13,1.0,6.0,94,0.00,,,0.01,Wunderground v.1.15,2013-03-01 12:35:00,
2013-03-01 04:38:00,51.2,49.5,30.28,NE,46,0.0,6.0,94,0.00,,,0.01,Wunderground v.1.15,2013-03-01 12:38:00,
2013-03-01 04:39:00,51.2,49.5,30.28,SE,131,0.0,6.0,94,0.00,,,0.01,Wunderground v.1.15,2013-03-01 12:39:00,
2013-03-01 04:41:00,51.0,49.3,30.28,East,86,1.0,1.0,94,0.00,,,0.01,Wunderground v.1.15,2013-03-01 12:41:00,
2013-03-01 04:43:00,51.0,49.3,30.28,SSE,148,1.0,4.0,94,0.00,,,0.01,Wunderground v.1.15,2013-03-01 12:43:00,
2013-03-01 04:44:00,51.0,49.3,30.28,South,186,1.0,4.0,94,0.00,,,0.01,Wunderground v.1.15,2013-03-01 12:44:00,
2013-03-01 04:46:00,51.0,49.3,30.28,ESE,113,0.0,4.0,94,0.00,,,0.01,Wunderground v.1.15,2013-03-01 12:46:00,
2013-03-01 04:48:00,51.0,49.3,30.28,South,185,4.0,6.0,94,0.00,,,0.01,Wunderground v.1.15,2013-03-01 12:48:00,
2013-03-01 04:49:00,51.0,49.3,30.28,SE,143,0.0,6.0,94,0.00,,,0.01,Wunderground v.1.15,2013-03-01 12:49:00,
2013-03-01 04:50:00,51.0,49.3,30.28,SE,143,0.0,1.0,94,0.00,,,0.01,Wunderground v.1.15,2013-03-01 12:50:00,
2013-03-01 04:51:00,51.2,49.5,30.28,SSE,159,0.0,6.0,94,0.00,,,0.01,Wunderground v.1.15,2013-03-01 12:51:00,
2013-03-01 04:53:00,51.2,49.5,30.28,ESE,120,2.0,6.0,94,0.00,,,0.01,Wunderground v.1.15,2013-03-01 12:53:00,
2013-03-01 04:55:00,51.2,49.5,30.28,NNE,29,2.0,6.0,94,0.00,,,0.01,Wunderground v.1.15,2013-03-01 12:55:00,
2013-03-01 04:56:00,51.2,49.5,30.28,SE,131,1.0,8.0,94,0.00,,,0.01,Wunderground v.1.15,2013-03-01 12:56:00,
2013-03-01 04:58:00,51.2,49.2,30.28,SE,136,1.0,8.0,93,0.00,,,0.01,Wunderground v.1.15,2013-03-01 12:58:00,
2013-03-01 05:00:00,51.3,49.3,30.28,SE,129,1.0,2.0,93,0.00,,,0.01,Wunderground v.1.15,2013-03-01 13:00:00,
2013-03-01 05:02:00,51.3,49.3,30.29,SSE,147,4.0,6.0,93,0.00,,,0.01,Wunderground v.1.15,2013-03-01 13:02:00,
2013-03-01 05:04:00,51.3,49.3,30.29,East,99,1.0,6.0,93,0.00,,,0.01,Wunderground v.1.15,2013-03-01 13:04:00,
2013-03-01 05:05:00,51.3,49.3,30.29,ENE,67,0.0,6.0,93,0.00,,,0.01,Wunderground v.1.15,2013-03-01 13:05:00,
2013-03-01 05:07:00,51.3,49.3,30.29,ESE,116,0.0,6.0,93,0.00,,,0.01,Wunderground v.1.15,2013-03-01 13:07:00,
2013-03-01 05:10:00,51.3,49.3,30.29,ESE,113,1.0,1.0,93,0.00,,,0.01,Wunderground v.1.15,2013-03-01 13:10:00,
2013-03-01 05:12:00,51.3,49.3,30.29,SE,144,5.0,6.0,93,0.00,,,0.01,Wunderground v.1.15,2013-03-01 13:12:00,
2013-03-01 05:15:00,51.3,49.3,30.29,SE,146,3.0,6.0,93,0.00,,,0.01,Wunderground v.1.15,2013-03-01 13:15:00,
2013-03-01 05:17:00,51.3,49.3,30.29,South,175,0.0,6.0,93,0.00,,,0.01,Wunderground v.1.15,2013-03-01 13:17:00,
2013-03-01 05:20:00,51.3,49.3,30.29,SSE,153,0.0,2.0,93,0.00,,,0.01,Wunderground v.1.15,2013-03-01 13:20:00,
2013-03-01 05:22:00,51.3,49.3,30.29,SE,143,0.0,3.0,93,0.00,,,0.01,Wunderground v.1.15,2013-03-01 13:22:00,
2013-03-01 05:23:00,51.3,49.3,30.29,SE,143,0.0,3.0,93,0.00,,,0.01,Wunderground v.1.15,2013-03-01 13:23:00,
2013-03-01 05:26:00,51.3,49.3,30.29,SE,132,0.0,3.0,93,0.00,,,0.01,Wunderground v.1.15,2013-03-01 13:26:00,
2013-03-01 05:27:00,51.2,49.2,30.29,East,100,0.0,3.0,93,0.00,,,0.01,Wunderground v.1.15,2013-03-01 13:27:00,
2013-03-01 05:28:00,51.2,49.2,30.29,ESE,115,0.0,3.0,93,0.00,,,0.01,Wunderground v.1.15,2013-03-01 13:28:00,
2013-03-01 05:33:00,51.2,49.2,30.28,SSE,159,2.0,5.0,93,0.00,,,0.01,Wunderground v.1.15,2013-03-01 13:33:00,
2013-03-01 05:38:00,51.2,49.2,30.28,SSE,155,0.0,5.0,93,0.00,,,0.01,Wunderground v.1.15,2013-03-01 13:38:00,
2013-03-01 05:43:00,51.2,49.2,30.28,SE,125,1.0,3.0,93,0.00,,,0.01,Wunderground v.1.15,2013-03-01 13:43:00,
2013-03-01 05:48:00,51.2,49.2,30.28,SSE,163,2.0,6.0,93,0.00,,,0.01,Wunderground v.1.15,2013-03-01 13:48:00,
2013-03-01 05:50:00,51.2,49.2,30.28,SE,146,0.0,1.0,93,0.00,,,0.01,Wunderground v.1.15,2013-03-01 13:50:00,
2013-03-01 05:53:00,51.2,49.2,30.28,SSE,155,1.0,1.0,93,0.00,,,0.01,Wunderground v.1.15,2013-03-01 13:53:00,
2013-03-01 05:54:00,51.2,49.2,30.28,SE,138,1.0,2.0,93,0.00,,,0.01,Wunderground v.1.15,2013-03-01 13:54:00,
2013-03-01 05:55:00,51.2,49.2,30.28,NE,44,0.0,4.0,93,0.00,,,0.01,Wunderground v.1.15,2013-03-01 13:55:00,
2013-03-01 05:59:00,51.2,49.0,30.28,SE,138,0.0,4.0,92,0.00,,,0.01,Wunderground v.1.15,2013-03-01 13:59:00,
2013-03-01 06:00:00,51.3,49.1,30.28,South,191,0.0,3.0,92,0.00,,,0.01,Wunderground v.1.15,2013-03-01 14:00:00,
2013-03-01 06:04:00,51.3,49.1,30.28,SSE,167,0.0,6.0,92,0.00,,,0.01,Wunderground v.1.15,2013-03-01 14:04:00,
2013-03-01 06:05:00,51.5,49.3,30.28,SSE,167,0.0,6.0,92,0.00,,,0.01,Wunderground v.1.15,2013-03-01 14:05:00,
2013-03-01 06:06:00,51.5,49.3,30.28,SE,135,0.0,6.0,92,0.00,,,0.01,Wunderground v.1.15,2013-03-01 14:06:00,
2013-03-01 06:09:00,51.5,49.3,30.28,NE,46,1.0,6.0,92,0.00,,,0.01,Wunderground v.1.15,2013-03-01 14:09:00,
2013-03-01 06:10:00,51.5,49.3,30.28,ENE,65,0.0,1.0,92,0.00,,,0.01,Wunderground v.1.15,2013-03-01 14:10:00,
2013-03-01 06:11:00,51.5,49.3,30.28,NW,316,2.0,2.0,92,0.00,,,0.01,Wunderground v.1.15,2013-03-01 14:11:00,
2013-03-01 06:15:00,51.5,49.3,30.28,NW,323,0.0,7.0,92,0.00,,,0.01,Wunderground v.1.15,2013-03-01 14:15:00,
2013-03-01 06:16:00,51.5,49.3,30.28,NW,323,0.0,7.0,92,0.00,,,0.01,Wunderground v.1.15,2013-03-01 14:16:00,
2013-03-01 06:17:00,51.5,49.0,30.28,East,86,1.0,7.0,91,0.00,,,0.01,Wunderground v.1.15,2013-03-01 14:17:00,
2013-03-01 06:21:00,51.5,49.0,30.28,ESE,103,0.0,2.0,91,0.00,,,0.01,Wunderground v.1.15,2013-03-01 14:21:00,
2013-03-01 06:23:00,51.5,49.0,30.28,East,84,0.0,4.0,91,0.00,,,0.01,Wunderground v.1.15,2013-03-01 14:23:00,
2013-03-01 06:26:00,51.5,49.0,30.28,SE,130,0.0,4.0,91,0.00,,,0.01,Wunderground v.1.15,2013-03-01 14:26:00,
2013-03-01 06:28:00,51.5,49.0,30.28,North,10,0.0,4.0,91,0.00,,,0.01,Wunderground v.1.15,2013-03-01 14:28:00,
2013-03-01 06:31:00,51.5,49.0,30.29,ESE,110,2.0,8.0,91,0.00,,,0.01,Wunderground v.1.15,2013-03-01 14:31:00,
2013-03-01 06:32:00,51.5,49.0,30.29,South,190,1.0,8.0,91,0.00,,,0.01,Wunderground v.1.15,2013-03-01 14:32:00,
2013-03-01 06:33:00,51.5,49.0,30.29,SSE,162,0.0,8.0,91,0.00,,,0.01,Wunderground v.1.15,2013-03-01 14:33:00,
2013-03-01 06:37:00,51.6,49.1,30.29,ESE,119,1.0,8.0,91,0.00,,,0.01,Wunderground v.1.15,2013-03-01 14:37:00,
2013-03-01 06:38:00,51.6,48.8,30.29,NE,44,0.0,8.0,90,0.00,,,0.01,Wunderground v.1.15,2013-03-01 14:38:00,
2013-03-01 06:39:00,51.6,48.8,30.29,NE,36,0.0,8.0,90,0.00,,,0.01,Wunderground v.1.15,2013-03-01 14:39:00,
2013-03-01 06:42:00,51.6,49.1,30.29,North,350,0.0,5.0,91,0.00,,,0.01,Wunderground v.1.15,2013-03-01 14:42:00,
2013-03-01 06:43:00,51.6,48.8,30.29,North,350,0.0,5.0,90,0.00,,,0.01,Wunderground v.1.15,2013-03-01 14:43:00,
2013-03-01 06:44:00,51.6,48.8,30.29,East,83,6.0,8.0,90,0.00,,,0.01,Wunderground v.1.15,2013-03-01 14:44:00,
2013-03-01 06:47:00,51.6,48.8,30.30,NE,38,0.0,8.0,90,0.00,,,0.01,Wunderground v.1.15,2013-03-01 14:47:00,
2013-03-01 06:48:00,51.6,48.8,30.30,NE,47,0.0,8.0,90,0.00,,,0.01,Wunderground v.1.15,2013-03-01 14:48:00,
2013-03-01 06:52:00,51.8,49.0,30.30,East,96,0.0,5.0,90,0.00,,,0.01,Wunderground v.1.15,2013-03-01 14:52:00,
2013-03-01 06:53:00,51.8,49.0,30.30,SSE,159,5.0,5.0,90,0.00,,,0.01,Wunderground v.1.15,2013-03-01 14:53:00,
2013-03-01 06:54:00,51.8,49.0,30.30,SSE,157,2.0,5.0,90,0.00,,,0.01,Wunderground v.1.15,2013-03-01 14:54:00,
2013-03-01 06:57:00,51.8,49.0,30.30,SSE,162,0.0,7.0,90,0.00,,,0.01,Wunderground v.1.15,2013-03-01 14:57:00,
2013-03-01 06:59:00,51.9,48.8,30.30,ESE,103,0.0,7.0,89,0.00,,,0.01,Wunderground v.1.15,2013-03-01 14:59:00,
2013-03-01 07:02:00,51.9,48.8,30.30,SSE,161,0.0,1.0,89,0.00,,,0.01,Wunderground v.1.15,2013-03-01 15:02:00,
2013-03-01 07:04:00,51.9,48.8,30.30,SSE,161,0.0,1.0,89,0.00,,,0.01,Wunderground v.1.15,2013-03-01 15:04:00,
2013-03-01 07:07:00,51.9,48.8,30.30,NE,38,0.0,10.0,89,0.00,,,0.01,Wunderground v.1.15,2013-03-01 15:07:00,
2013-03-01 07:08:00,51.9,48.8,30.30,NNE,28,1.0,10.0,89,0.00,,,0.01,Wunderground v.1.15,2013-03-01 15:08:00,
2013-03-01 07:09:00,51.9,48.8,30.30,ESE,107,0.0,10.0,89,0.00,,,0.01,Wunderground v.1.15,2013-03-01 15:09:00,
2013-03-01 07:13:00,51.9,49.1,30.30,East,83,0.0,7.0,90,0.00,,,0.01,Wunderground v.1.15,2013-03-01 15:13:00,
2013-03-01 07:14:00,51.9,49.1,30.30,NNE,20,1.0,7.0,90,0.00,,,0.01,Wunderground v.1.15,2013-03-01 15:14:00,
2013-03-01 07:15:00,51.9,49.1,30.30,NNE,13,7.0,7.0,90,0.00,,,0.01,Wunderground v.1.15,2013-03-01 15:15:00,
2013-03-01 07:18:00,51.9,48.8,30.30,SSE,150,0.0,7.0,89,0.00,,,0.01,Wunderground v.1.15,2013-03-01 15:18:00,
2013-03-01 07:20:00,51.9,48.8,30.30,ENE,61,2.0,6.0,89,0.00,,,0.01,Wunderground v.1.15,2013-03-01 15:20:00,
2013-03-01 07:23:00,52.1,49.0,30.30,NW,319,1.0,6.0,89,0.00,,,0.01,Wunderground v.1.15,2013-03-01 15:23:00,
2013-03-01 07:24:00,52.1,49.0,30.30,NNW,336,0.0,6.0,89,0.00,,,0.01,Wunderground v.1.15,2013-03-01 15:24:00,
2013-03-01 07:25:00,52.1,49.0,30.30,West,278,0.0,6.0,89,0.00,,,0.01,Wunderground v.1.15,2013-03-01 15:25:00,
2013-03-01 07:29:00,52.1,49.0,30.30,SE,142,7.0,7.0,89,0.00,,,0.01,Wunderground v.1.15,2013-03-01 15:29:00,
2013-03-01 07:30:00,52.1,49.0,30.30,SE,142,7.0,7.0,89,0.00,,,0.01,Wunderground v.1.15,2013-03-01 15:30:00,
2013-03-01 07:32:00,52.1,49.0,30.31,SSE,149,6.0,8.0,89,0.00,,,0.01,Wunderground v.1.15,2013-03-01 15:32:00,
2013-03-01 07:34:00,52.1,49.0,30.31,ESE,115,0.0,9.0,89,0.00,,,0.01,Wunderground v.1.15,2013-03-01 15:34:00,
2013-03-01 07:35:00,52.1,49.0,30.31,ESE,111,0.0,9.0,89,0.00,,,0.01,Wunderground v.1.15,2013-03-01 15:35:00,
2013-03-01 07:36:00,52.1,49.0,30.31,NE,37,4.0,9.0,89,0.00,,,0.01,Wunderground v.1.15,2013-03-01 15:36:00,
2013-03-01 07:37:00,52.1,49.0,30.31,ESE,119,0.0,9.0,89,0.00,,,0.01,Wunderground v.1.15,2013-03-01 15:37:00,
2013-03-01 07:40:00,52.1,49.0,30.31,SSE,155,0.0,2.0,89,0.00,,,0.01,Wunderground v.1.15,2013-03-01 15:40:00,
2013-03-01 07:41:00,52.1,49.0,30.31,SSE,155,0.0,2.0,89,0.00,,,0.01,Wunderground v.1.15,2013-03-01 15:41:00,
2013-03-01 07:42:00,52.1,49.0,30.31,NE,37,1.0,6.0,89,0.00,,,0.01,Wunderground v.1.15,2013-03-01 15:42:00,
2013-03-01 07:45:00,52.1,49.0,30.31,SSW,213,1.0,6.0,89,0.00,,,0.01,Wunderground v.1.15,2013-03-01 15:45:00,
2013-03-01 07:46:00,52.1,49.0,30.31,SSW,212,0.0,6.0,89,0.00,,,0.01,Wunderground v.1.15,2013-03-01 15:46:00,
2013-03-01 07:47:00,52.1,49.0,30.31,SE,137,3.0,6.0,89,0.00,,,0.01,Wunderground v.1.15,2013-03-01 15:47:00,
2013-03-01 07:51:00,52.2,48.8,30.31,South,180,4.0,4.0,88,0.00,,,0.01,Wunderground v.1.15,2013-03-01 15:51:00,
2013-03-01 07:53:00,52.2,48.8,30.31,SE,131,2.0,5.0,88,0.00,,,0.01,Wunderground v.1.15,2013-03-01 15:53:00,
2013-03-01 07:56:00,52.2,48.8,30.31,NE,51,1.0,6.0,88,0.00,,,0.01,Wunderground v.1.15,2013-03-01 15:56:00,
2013-03-01 07:57:00,52.2,48.8,30.31,ESE,113,1.0,6.0,88,0.00,,,0.01,Wunderground v.1.15,2013-03-01 15:57:00,
2013-03-01 07:58:00,52.2,49.1,30.31,SSE,163,0.0,6.0,89,0.00,,,0.01,Wunderground v.1.15,2013-03-01 15:58:00,
2013-03-01 08:02:00,52.2,49.1,30.31,NE,46,0.0,1.0,89,0.00,,,0.01,Wunderground v.1.15,2013-03-01 16:02:00,
2013-03-01 08:03:00,52.2,49.1,30.31,SE,138,0.0,7.0,89,0.00,,,0.01,Wunderground v.1.15,2013-03-01 16:03:00,
2013-03-01 08:07:00,52.2,48.8,30.31,NE,45,1.0,7.0,88,0.00,,,0.01,Wunderground v.1.15,2013-03-01 16:07:00,
2013-03-01 08:08:00,52.2,48.8,30.31,SSE,159,6.0,7.0,88,0.00,,,0.01,Wunderground v.1.15,2013-03-01 16:08:00,
2013-03-01 08:09:00,52.2,48.8,30.31,SE,140,0.0,7.0,88,0.00,,,0.01,Wunderground v.1.15,2013-03-01 16:09:00,
2013-03-01 08:12:00,52.2,48.8,30.31,East,84,2.0,4.0,88,0.00,,,0.01,Wunderground v.1.15,2013-03-01 16:12:00,
2013-03-01 08:14:00,52.2,48.8,30.31,SE,141,0.0,4.0,88,0.00,,,0.01,Wunderground v.1.15,2013-03-01 16:14:00,
2013-03-01 08:18:00,52.4,48.9,30.32,NE,35,0.0,6.0,88,0.00,,,0.01,Wunderground v.1.15,2013-03-01 16:18:00,
2013-03-01 08:19:00,52.4,48.9,30.32,NE,35,0.0,6.0,88,0.00,,,0.01,Wunderground v.1.15,2013-03-01 16:19:00,
2013-03-01 08:20:00,52.4,49.3,30.32,East,86,1.0,1.0,89,0.00,,,0.01,Wunderground v.1.15,2013-03-01 16:20:00,
2013-03-01 08:24:00,52.4,48.9,30.32,WSW,238,0.0,6.0,88,0.00,,,0.01,Wunderground v.1.15,2013-03-01 16:24:00,
2013-03-01 08:25:00,52.4,48.9,30.32,SE,126,2.0,6.0,88,0.00,,,0.01,Wunderground v.1.15,2013-03-01 16:25:00,
2013-03-01 08:29:00,52.4,48.9,30.32,NW,319,0.0,8.0,88,0.00,,,0.01,Wunderground v.1.15,2013-03-01 16:29:00,
2013-03-01 08:30:00,52.4,48.6,30.32,NNW,330,0.0,2.0,87,0.00,,,0.01,Wunderground v.1.15,2013-03-01 16:30:00,
2013-03-01 08:31:00,52.4,48.6,30.32,NNW,330,0.0,2.0,87,0.00,,,0.01,Wunderground v.1.15,2013-03-01 16:31:00,
2013-03-01 08:35:00,52.5,48.7,30.33,ENE,69,1.0,3.0,87,0.00,,,0.01,Wunderground v.1.15,2013-03-01 16:35:00,
2013-03-01 08:36:00,52.5,48.7,30.33,ENE,69,0.0,3.0,87,0.00,,,0.01,Wunderground v.1.15,2013-03-01 16:36:00,
2013-03-01 08:37:00,52.5,48.7,30.33,ENE,77,1.0,5.0,87,0.00,,,0.01,Wunderground v.1.15,2013-03-01 16:37:00,
2013-03-01 08:40:00,52.5,48.7,30.33,NE,34,1.0,3.0,87,0.00,,,0.01,Wunderground v.1.15,2013-03-01 16:40:00,
2013-03-01 08:41:00,52.5,48.7,30.33,NNE,26,0.0,3.0,87,0.00,,,0.01,Wunderground v.1.15,2013-03-01 16:41:00,
2013-03-01 08:42:00,52.5,48.7,30.33,ENE,62,0.0,3.0,87,0.00,,,0.01,Wunderground v.1.15,2013-03-01 16:42:00,
2013-03-01 08:46:00,52.5,49.0,30.33,WNW,286,2.0,6.0,88,0.00,,,0.01,Wunderground v.1.15,2013-03-01 16:46:00,
2013-03-01 08:47:00,52.5,48.7,30.33,ESE,111,0.0,6.0,87,0.00,,,0.01,Wunderground v.1.15,2013-03-01 16:47:00,
2013-03-01 08:48:00,52.5,48.7,30.33,ESE,111,0.0,6.0,87,0.00,,,0.01,Wunderground v.1.15,2013-03-01 16:48:00,
2013-03-01 08:51:00,52.5,48.7,30.33,South,169,0.0,1.0,87,0.00,,,0.01,Wunderground v.1.15,2013-03-01 16:51:00,
2013-03-01 08:53:00,52.7,48.9,30.33,SE,136,4.0,4.0,87,0.00,,,0.01,Wunderground v.1.15,2013-03-01 16:53:00,
2013-03-01 08:56:00,52.5,48.7,30.33,SSE,151,2.0,5.0,87,0.00,,,0.01,Wunderground v.1.15,2013-03-01 16:56:00,
2013-03-01 08:57:00,52.5,48.7,30.33,South,169,1.0,6.0,87,0.00,,,0.01,Wunderground v.1.15,2013-03-01 16:57:00,
2013-03-01 08:58:00,52.5,48.7,30.33,SSE,150,2.0,6.0,87,0.00,,,0.01,Wunderground v.1.15,2013-03-01 16:58:00,
2013-03-01 08:59:00,52.5,48.7,30.33,SSE,150,1.0,6.0,87,0.00,,,0.01,Wunderground v.1.15,2013-03-01 16:59:00,
2013-03-01 09:01:00,52.7,48.9,30.33,North,351,1.0,4.0,87,0.00,,,0.01,Wunderground v.1.15,2013-03-01 17:01:00,
2013-03-01 09:02:00,52.7,48.6,30.33,North,355,0.0,4.0,86,0.00,,,0.01,Wunderground v.1.15,2013-03-01 17:02:00,
2013-03-01 09:04:00,52.7,48.9,30.33,North,355,1.0,4.0,87,0.00,,,0.01,Wunderground v.1.15,2013-03-01 17:04:00,
2013-03-01 09:05:00,52.7,48.9,30.33,North,355,0.0,4.0,87,0.00,,,0.01,Wunderground v.1.15,2013-03-01 17:05:00,
2013-03-01 09:06:00,52.7,48.9,30.33,ENE,57,0.0,4.0,87,0.00,,,0.01,Wunderground v.1.15,2013-03-01 17:06:00,
2013-03-01 09:09:00,52.7,48.9,30.33,NNW,338,0.0,4.0,87,0.00,,,0.01,Wunderground v.1.15,2013-03-01 17:09:00,
2013-03-01 09:10:00,52.7,48.6,30.33,SE,138,1.0,2.0,86,0.00,,,0.01,Wunderground v.1.15,2013-03-01 17:10:00,
2013-03-01 09:13:00,52.7,48.9,30.33,WSW,251,0.0,2.0,87,0.00,,,0.01,Wunderground v.1.15,2013-03-01 17:13:00,
2013-03-01 09:14:00,52.7,48.6,30.33,WSW,251,0.0,2.0,86,0.00,,,0.01,Wunderground v.1.15,2013-03-01 17:14:00,
2013-03-01 09:15:00,52.7,48.9,30.33,SE,138,0.0,2.0,87,0.00,,,0.01,Wunderground v.1.15,2013-03-01 17:15:00,
2013-03-01 09:19:00,52.8,49.0,30.34,SSE,160,0.0,2.0,87,0.00,,,0.01,Wunderground v.1.15,2013-03-01 17:19:00,
2013-03-01 09:21:00,52.8,49.0,30.34,SE,142,0.0,2.0,87,0.00,,,0.01,Wunderground v.1.15,2013-03-01 17:21:00,
2013-03-01 09:24:00,52.8,49.0,30.34,SE,142,0.0,2.0,87,0.00,,,0.01,Wunderground v.1.15,2013-03-01 17:24:00,
2013-03-01 09:25:00,52.8,49.0,30.34,SE,145,0.0,3.0,87,0.00,,,0.01,Wunderground v.1.15,2013-03-01 17:25:00,
2013-03-01 09:27:00,52.8,49.0,30.34,NE,53,0.0,3.0,87,0.00,,,0.01,Wunderground v.1.15,2013-03-01 17:27:00,
2013-03-01 09:29:00,52.7,48.9,30.34,NNE,28,0.0,3.0,87,0.00,,,0.01,Wunderground v.1.15,2013-03-01 17:29:00,
2013-03-01 09:30:00,52.7,49.2,30.34,NE,40,0.0,1.0,88,0.00,,,0.01,Wunderground v.1.15,2013-03-01 17:30:00,
2013-03-01 09:32:00,52.7,48.9,30.33,SE,146,0.0,2.0,87,0.00,,,0.01,Wunderground v.1.15,2013-03-01 17:32:00,
2013-03-01 09:34:00,52.7,49.2,30.33,NNE,16,1.0,3.0,88,0.00,,,0.01,Wunderground v.1.15,2013-03-01 17:34:00,
2013-03-01 09:35:00,52.7,49.2,30.33,NNE,13,0.0,3.0,88,0.00,,,0.01,Wunderground v.1.15,2013-03-01 17:35:00,
2013-03-01 09:38:00,52.7,49.2,30.33,NE,52,0.0,3.0,88,0.00,,,0.01,Wunderground v.1.15,2013-03-01 17:38:00,
2013-03-01 09:39:00,52.7,49.2,30.33,NNE,31,0.0,3.0,88,0.00,,,0.01,Wunderground v.1.15,2013-03-01 17:39:00,
2013-03-01 09:41:00,52.7,49.2,30.33,NNE,31,1.0,1.0,88,0.00,,,0.01,Wunderground v.1.15,2013-03-01 17:41:00,
2013-03-01 09:43:00,52.7,49.2,30.33,NNW,335,4.0,5.0,88,0.00,,,0.01,Wunderground v.1.15,2013-03-01 17:43:00,
2013-03-01 09:44:00,52.7,49.2,30.33,NNW,339,0.0,5.0,88,0.00,,,0.01,Wunderground v.1.15,2013-03-01 17:44:00,
2013-03-01 09:46:00,52.7,49.2,30.34,East,79,0.0,5.0,88,0.00,,,0.01,Wunderground v.1.15,2013-03-01 17:46:00,
2013-03-01 09:49:00,52.7,49.2,30.34,NNE,31,1.0,5.0,88,0.00,,,0.01,Wunderground v.1.15,2013-03-01 17:49:00,
2013-03-01 09:51:00,52.7,49.2,30.34,NNE,31,0.0,1.0,88,0.00,,,0.01,Wunderground v.1.15,2013-03-01 17:51:00,
2013-03-01 09:54:00,52.7,49.2,30.34,NNE,29,1.0,4.0,88,0.00,,,0.01,Wunderground v.1.15,2013-03-01 17:54:00,
2013-03-01 09:56:00,52.7,49.2,30.34,North,360,2.0,4.0,88,0.00,,,0.01,Wunderground v.1.15,2013-03-01 17:56:00,
2013-03-01 09:59:00,52.7,49.2,30.34,SE,138,0.0,5.0,88,0.00,,,0.01,Wunderground v.1.15,2013-03-01 17:59:00,
2013-03-01 10:01:00,52.7,49.2,30.34,NNE,13,2.0,2.0,88,0.00,,,0.01,Wunderground v.1.15,2013-03-01 18:01:00,
2013-03-01 10:04:00,52.8,49.3,30.34,ENE,69,0.0,2.0,88,0.00,,,0.01,Wunderground v.1.15,2013-03-01 18:04:00,
2013-03-01 10:05:00,52.8,49.3,30.34,ENE,69,0.0,2.0,88,0.00,,,0.01,Wunderground v.1.15,2013-03-01 18:05:00,
2013-03-01 10:06:00,52.8,49.3,30.34,ESE,109,0.0,2.0,88,0.00,,,0.01,Wunderground v.1.15,2013-03-01 18:06:00,
2013-03-01 10:10:00,52.8,49.3,30.34,South,186,0.0,0.0,88,0.00,,,0.01,Wunderground v.1.15,2013-03-01 18:10:00,
2013-03-01 10:11:00,52.8,49.3,30.34,ESE,108,0.0,2.0,88,0.00,,,0.01,Wunderground v.1.15,2013-03-01 18:11:00,
2013-03-01 10:15:00,52.8,49.3,30.34,SE,124,0.0,2.0,88,0.00,,,0.01,Wunderground v.1.15,2013-03-01 18:15:00,
2013-03-01 10:16:00,52.8,49.3,30.34,SE,128,0.0,6.0,88,0.00,,,0.01,Wunderground v.1.15,2013-03-01 18:16:00,
2013-03-01 10:17:00,52.8,49.0,30.34,NE,36,0.0,6.0,87,0.00,,,0.01,Wunderground v.1.15,2013-03-01 18:17:00,
2013-03-01 10:18:00,52.8,49.0,30.34,NE,36,0.0,6.0,87,0.00,,,0.01,Wunderground v.1.15,2013-03-01 18:18:00,
2013-03-01 10:21:00,52.8,49.0,30.34,NNE,26,2.0,2.0,87,0.00,,,0.01,Wunderground v.1.15,2013-03-01 18:21:00,
2013-03-01 10:22:00,52.8,49.0,30.34,NNE,26,0.0,2.0,87,0.00,,,0.01,Wunderground v.1.15,2013-03-01 18:22:00,
2013-03-01 10:23:00,52.8,49.0,30.34,NNE,26,0.0,2.0,87,0.00,,,0.01,Wunderground v.1.15,2013-03-01 18:23:00,
2013-03-01 10:26:00,53.0,49.2,30.34,WSW,248,2.0,5.0,87,0.00,,,0.01,Wunderground v.1.15,2013-03-01 18:26:00,
2013-03-01 10:27:00,53.0,49.2,30.34,North,5,0.0,5.0,87,0.00,,,0.01,Wunderground v.1.15,2013-03-01 18:27:00,
2013-03-01 10:28:00,53.0,49.2,30.34,ESE,121,1.0,5.0,87,0.00,,,0.01,Wunderground v.1.15,2013-03-01 18:28:00,
2013-03-01 10:29:00,53.0,49.2,30.34,SSE,168,1.0,5.0,87,0.00,,,0.01,Wunderground v.1.15,2013-03-01 18:29:00,
2013-03-01 10:32:00,53.0,49.2,30.35,SSE,152,6.0,6.0,87,0.00,,,0.01,Wunderground v.1.15,2013-03-01 18:32:00,
2013-03-01 10:34:00,53.0,49.2,30.35,ESE,119,4.0,6.0,87,0.00,,,0.01,Wunderground v.1.15,2013-03-01 18:34:00,
2013-03-01 10:37:00,53.0,49.2,30.35,SE,146,0.0,6.0,87,0.00,,,0.01,Wunderground v.1.15,2013-03-01 18:37:00,
2013-03-01 10:38:00,53.0,49.2,30.35,SE,146,0.0,6.0,87,0.00,,,0.01,Wunderground v.1.15,2013-03-01 18:38:00,
2013-03-01 10:39:00,53.0,49.2,30.35,East,95,2.0,6.0,87,0.00,,,0.01,Wunderground v.1.15,2013-03-01 18:39:00,
2013-03-01 10:43:00,53.0,48.9,30.35,NE,44,4.0,4.0,86,0.00,,,0.01,Wunderground v.1.15,2013-03-01 18:43:00,
2013-03-01 10:44:00,53.0,48.9,30.35,NE,40,5.0,5.0,86,0.00,,,0.01,Wunderground v.1.15,2013-03-01 18:44:00,
2013-03-01 10:45:00,53.0,48.9,30.35,SSW,198,2.0,5.0,86,0.00,,,0.01,Wunderground v.1.15,2013-03-01 18:45:00,
2013-03-01 10:48:00,53.0,48.6,30.34,ESE,103,1.0,5.0,85,0.00,,,0.01,Wunderground v.1.15,2013-03-01 18:48:00,
2013-03-01 10:49:00,53.1,48.7,30.34,ENE,67,0.0,5.0,85,0.00,,,0.01,Wunderground v.1.15,2013-03-01 18:49:00,
2013-03-01 10:50:00,53.1,49.0,30.34,NE,35,7.0,7.0,86,0.00,,,0.01,Wunderground v.1.15,2013-03-01 18:50:00,
2013-03-01 10:54:00,53.1,49.0,30.34,NNE,21,7.0,7.0,86,0.00,,,0.01,Wunderground v.1.15,2013-03-01 18:54:00,
2013-03-01 10:56:00,53.1,48.7,30.34,NE,35,0.0,7.0,85,0.00,,,0.01,Wunderground v.1.15,2013-03-01 18:56:00,
2013-03-01 10:59:00,53.3,48.9,30.34,NNE,32,0.0,7.0,85,0.00,,,0.01,Wunderground v.1.15,2013-03-01 18:59:00,
2013-03-01 11:00:00,53.3,48.9,30.34,NNE,32,0.0,2.0,85,0.00,,,0.01,Wunderground v.1.15,2013-03-01 19:00:00,
2013-03-01 11:01:00,53.3,48.9,30.34,NNE,28,5.0,5.0,85,0.00,,,0.01,Wunderground v.1.15,2013-03-01 19:01:00,
2013-03-01 11:04:00,53.3,48.9,30.34,NNW,336,0.0,6.0,85,0.00,,,0.01,Wunderground v.1.15,2013-03-01 19:04:00,
2013-03-01 11:05:00,53.3,48.9,30.34,NNW,336,0.0,6.0,85,0.00,,,0.01,Wunderground v.1.15,2013-03-01 19:05:00,
2013-03-01 11:06:00,53.3,48.6,30.34,NW,316,0.0,6.0,84,0.00,,,0.01,Wunderground v.1.15,2013-03-01 19:06:00,
2013-03-01 11:10:00,53.4,48.7,30.34,SSE,166,0.0,1.0,84,0.00,,,0.01,Wunderground v.1.15,2013-03-01 19:10:00,
2013-03-01 11:11:00,53.4,49.0,30.34,SSE,152,1.0,2.0,85,0.00,,,0.01,Wunderground v.1.15,2013-03-01 19:11:00,
2013-03-01 11:12:00,53.4,49.0,30.34,SSE,152,0.0,2.0,85,0.00,,,0.01,Wunderground v.1.15,2013-03-01 19:12:00,
2013-03-01 11:16:00,53.6,48.9,30.34,South,185,0.0,7.0,84,0.00,,,0.01,Wunderground v.1.15,2013-03-01 19:16:00,
2013-03-01 11:17:00,53.7,49.3,30.34,NNE,12,6.0,7.0,85,0.00,,,0.01,Wunderground v.1.15,2013-03-01 19:17:00,
2013-03-01 11:21:00,53.7,49.0,30.34,NE,52,0.0,5.0,84,0.00,,,0.01,Wunderground v.1.15,2013-03-01 19:21:00,
2013-03-01 11:22:00,53.7,49.0,30.34,NE,53,1.0,5.0,84,0.00,,,0.01,Wunderground v.1.15,2013-03-01 19:22:00,
2013-03-01 11:23:00,53.8,49.4,30.34,NE,37,0.0,5.0,85,0.00,,,0.01,Wunderground v.1.15,2013-03-01 19:23:00,
2013-03-01 11:27:00,53.8,49.4,30.34,NNE,30,0.0,5.0,85,0.00,,,0.01,Wunderground v.1.15,2013-03-01 19:27:00,
2013-03-01 11:28:00,53.8,49.4,30.34,NNW,338,0.0,5.0,85,0.00,,,0.01,Wunderground v.1.15,2013-03-01 19:28:00,
2013-03-01 11:29:00,53.8,49.4,30.34,SE,128,1.0,5.0,85,0.00,,,0.01,Wunderground v.1.15,2013-03-01 19:29:00,
2013-03-01 11:33:00,53.8,49.1,30.34,South,181,0.0,4.0,84,0.00,,,0.01,Wunderground v.1.15,2013-03-01 19:33:00,
2013-03-01 11:34:00,53.8,49.1,30.34,South,181,0.0,4.0,84,0.00,,,0.01,Wunderground v.1.15,2013-03-01 19:34:00,
2013-03-01 11:38:00,54.0,49.3,30.34,SSW,196,2.0,6.0,84,0.00,,,0.01,Wunderground v.1.15,2013-03-01 19:38:00,
2013-03-01 11:39:00,54.0,49.6,30.34,NE,49,5.0,6.0,85,0.00,,,0.01,Wunderground v.1.15,2013-03-01 19:39:00,
2013-03-01 11:40:00,53.8,49.1,30.34,ESE,102,0.0,1.0,84,0.00,,,0.01,Wunderground v.1.15,2013-03-01 19:40:00,
2013-03-01 11:44:00,54.0,49.0,30.34,NNE,26,2.0,5.0,83,0.00,,,0.01,Wunderground v.1.15,2013-03-01 19:44:00,
2013-03-01 11:45:00,54.0,49.0,30.34,North,5,2.0,5.0,83,0.00,,,0.01,Wunderground v.1.15,2013-03-01 19:45:00,
2013-03-01 11:46:00,54.0,49.0,30.33,NNE,30,0.0,5.0,83,0.00,,,0.01,Wunderground v.1.15,2013-03-01 19:46:00,
2013-03-01 11:49:00,54.0,49.0,30.33,SE,126,0.0,2.0,83,0.00,,,0.01,Wunderground v.1.15,2013-03-01 19:49:00,
2013-03-01 11:50:00,54.0,49.0,30.33,NNE,20,1.0,2.0,83,0.00,,,0.01,Wunderground v.1.15,2013-03-01 19:50:00,
2013-03-01 11:51:00,54.0,49.0,30.33,NNE,30,2.0,2.0,83,0.00,,,0.01,Wunderground v.1.15,2013-03-01 19:51:00,
2013-03-01 11:55:00,54.0,49.0,30.33,ENE,67,0.0,6.0,83,0.00,,,0.01,Wunderground v.1.15,2013-03-01 19:55:00,
2013-03-01 11:56:00,54.0,49.0,30.33,SE,146,0.0,8.0,83,0.00,,,0.01,Wunderground v.1.15,2013-03-01 19:56:00,
2013-03-01 12:00:00,54.1,49.1,30.33,North,355,3.0,3.0,83,0.00,,,0.01,Wunderground v.1.15,2013-03-01 20:00:00,
2013-03-01 12:02:00,54.1,49.1,30.33,SE,136,7.0,9.0,83,0.00,,,0.01,Wunderground v.1.15,2013-03-01 20:02:00,
2013-03-01 12:05:00,54.1,49.1,30.33,SSE,151,4.0,9.0,83,0.00,,,0.01,Wunderground v.1.15,2013-03-01 20:05:00,
2013-03-01 12:07:00,54.1,48.7,30.33,ENE,72,1.0,9.0,82,0.00,,,0.01,Wunderground v.1.15,2013-03-01 20:07:00,
2013-03-01 12:10:00,54.1,48.7,30.33,SE,144,0.0,5.0,82,0.00,,,0.01,Wunderground v.1.15,2013-03-01 20:10:00,
2013-03-01 12:12:00,54.1,48.7,30.33,SE,145,0.0,5.0,82,0.00,,,0.01,Wunderground v.1.15,2013-03-01 20:12:00,
2013-03-01 12:15:00,54.3,48.9,30.33,SE,140,1.0,5.0,82,0.00,,,0.01,Wunderground v.1.15,2013-03-01 20:15:00,
2013-03-01 12:16:00,54.3,48.6,30.33,SE,140,0.0,5.0,81,0.00,,,0.01,Wunderground v.1.15,2013-03-01 20:16:00,
2013-03-01 12:18:00,54.3,48.9,30.34,East,86,1.0,5.0,82,0.00,,,0.01,Wunderground v.1.15,2013-03-01 20:18:00,
2013-03-01 12:21:00,54.3,48.9,30.34,ESE,113,1.0,1.0,82,0.00,,,0.01,Wunderground v.1.15,2013-03-01 20:21:00,
2013-03-01 12:24:00,54.3,48.9,30.34,East,79,0.0,2.0,82,0.00,,,0.01,Wunderground v.1.15,2013-03-01 20:24:00,
2013-03-01 12:26:00,54.3,48.9,30.34,NE,39,2.0,5.0,82,0.00,,,0.01,Wunderground v.1.15,2013-03-01 20:26:00,
2013-03-01 12:29:00,54.3,48.9,30.34,NNE,26,0.0,5.0,82,0.00,,,0.01,Wunderground v.1.15,2013-03-01 20:29:00,
2013-03-01 12:31:00,54.3,48.9,30.33,NW,307,1.0,2.0,82,0.00,,,0.01,Wunderground v.1.15,2013-03-01 20:31:00,
2013-03-01 12:32:00,54.3,48.9,30.33,NE,49,0.0,2.0,82,0.00,,,0.01,Wunderground v.1.15,2013-03-01 20:32:00,
2013-03-01 12:34:00,54.3,48.6,30.33,NNE,25,3.0,3.0,81,0.00,,,0.01,Wunderground v.1.15,2013-03-01 20:34:00,
2013-03-01 12:35:00,54.4,48.7,30.33,NE,42,2.0,4.0,81,0.00,,,0.01,Wunderground v.1.15,2013-03-01 20:35:00,
2013-03-01 12:36:00,54.4,48.7,30.33,North,10,0.0,4.0,81,0.00,,,0.01,Wunderground v.1.15,2013-03-01 20:36:00,
2013-03-01 12:38:00,54.4,48.7,30.33,SE,131,0.0,4.0,81,0.00,,,0.01,Wunderground v.1.15,2013-03-01 20:38:00,
2013-03-01 12:39:00,54.4,48.4,30.33,NNE,30,2.0,4.0,80,0.00,,,0.01,Wunderground v.1.15,2013-03-01 20:39:00,
2013-03-01 12:40:00,54.6,48.6,30.33,NNE,30,0.0,1.0,80,0.00,,,0.01,Wunderground v.1.15,2013-03-01 20:40:00,
2013-03-01 12:42:00,54.6,48.9,30.33,SE,136,1.0,5.0,81,0.00,,,0.01,Wunderground v.1.15,2013-03-01 20:42:00,
2013-03-01 12:43:00,54.6,49.2,30.33,SE,140,0.0,5.0,82,0.00,,,0.01,Wunderground v.1.15,2013-03-01 20:43:00,
2013-03-01 12:45:00,54.6,48.9,30.33,SE,127,0.0,5.0,81,0.00,,,0.01,Wunderground v.1.15,2013-03-01 20:45:00,
2013-03-01 12:46:00,54.6,48.9,30.32,South,181,0.0,5.0,81,0.00,,,0.01,Wunderground v.1.15,2013-03-01 20:46:00,
2013-03-01 12:48:00,54.6,48.9,30.32,SE,130,0.0,6.0,81,0.00,,,0.01,Wunderground v.1.15,2013-03-01 20:48:00,
2013-03-01 12:49:00,54.6,48.9,30.32,SE,130,0.0,6.0,81,0.00,,,0.01,Wunderground v.1.15,2013-03-01 20:49:00,
2013-03-01 12:50:00,54.6,49.2,30.32,SE,140,1.0,1.0,82,0.00,,,0.01,Wunderground v.1.15,2013-03-01 20:50:00,
2013-03-01 12:52:00,54.6,48.9,30.32,North,5,4.0,9.0,81,0.00,,,0.01,Wunderground v.1.15,2013-03-01 20:52:00,
2013-03-01 12:53:00,54.6,48.9,30.32,NE,46,0.0,9.0,81,0.00,,,0.01,Wunderground v.1.15,2013-03-01 20:53:00,
2013-03-01 12:55:00,54.6,49.2,30.32,ENE,68,0.0,9.0,82,0.00,,,0.01,Wunderground v.1.15,2013-03-01 20:55:00,
2013-03-01 12:57:00,54.6,48.9,30.32,NE,55,1.0,9.0,81,0.00,,,0.01,Wunderground v.1.15,2013-03-01 20:57:00,
2013-03-01 12:58:00,54.7,49.3,30.32,East,98,0.0,9.0,82,0.00,,,0.01,Wunderground v.1.15,2013-03-01 20:58:00,
2013-03-01 13:00:00,54.7,49.0,30.32,ENE,73,1.0,1.0,81,0.00,,,0.01,Wunderground v.1.15,2013-03-01 21:00:00,
2013-03-01 13:01:00,54.7,49.3,30.32,SSE,148,1.0,6.0,82,0.00,,,0.01,Wunderground v.1.15,2013-03-01 21:01:00,
2013-03-01 13:02:00,54.7,49.3,30.32,SE,146,0.0,6.0,82,0.00,,,0.01,Wunderground v.1.15,2013-03-01 21:02:00,
2013-03-01 13:04:00,54.7,49.3,30.32,NE,55,0.0,6.0,82,0.00,,,0.01,Wunderground v.1.15,2013-03-01 21:04:00,
2013-03-01 13:05:00,54.7,49.3,30.32,NE,55,0.0,6.0,82,0.00,,,0.01,Wunderground v.1.15,2013-03-01 21:05:00,
2013-03-01 13:07:00,54.7,49.3,30.32,East,83,1.0,6.0,82,0.00,,,0.01,Wunderground v.1.15,2013-03-01 21:07:00,
2013-03-01 13:08:00,54.7,49.3,30.32,ESE,109,0.0,6.0,82,0.00,,,0.01,Wunderground v.1.15,2013-03-01 21:08:00,
2013-03-01 13:09:00,54.7,49.3,30.32,ENE,75,1.0,1.0,82,0.00,,,0.01,Wunderground v.1.15,2013-03-01 21:09:00,
2013-03-01 13:12:00,54.7,49.0,30.32,SE,142,0.0,1.0,81,0.00,,,0.01,Wunderground v.1.15,2013-03-01 21:12:00,
2013-03-01 13:13:00,54.7,49.3,30.32,SE,142,0.0,1.0,82,0.00,,,0.01,Wunderground v.1.15,2013-03-01 21:13:00,
2013-03-01 13:15:00,54.9,49.2,30.32,South,182,1.0,6.0,81,0.00,,,0.01,Wunderground v.1.15,2013-03-01 21:15:00,
2013-03-01 13:17:00,54.9,49.2,30.32,ENE,74,0.0,6.0,81,0.00,,,0.01,Wunderground v.1.15,2013-03-01 21:17:00,
2013-03-01 13:18:00,54.9,49.2,30.32,North,360,0.0,6.0,81,0.00,,,0.01,Wunderground v.1.15,2013-03-01 21:18:00,
2013-03-01 13:20:00,54.9,49.5,30.32,SE,139,0.0,1.0,82,0.00,,,0.01,Wunderground v.1.15,2013-03-01 21:20:00,
2013-03-01 13:23:00,54.9,49.2,30.32,SSE,156,0.0,4.0,81,0.00,,,0.01,Wunderground v.1.15,2013-03-01 21:23:00,
2013-03-01 13:24:00,54.9,49.2,30.32,NNE,17,1.0,4.0,81,0.00,,,0.01,Wunderground v.1.15,2013-03-01 21:24:00,
2013-03-01 13:25:00,54.9,49.2,30.32,ENE,68,0.0,4.0,81,0.00,,,0.01,Wunderground v.1.15,2013-03-01 21:25:00,
2013-03-01 13:28:00,54.9,49.2,30.32,SSE,147,0.0,4.0,81,0.00,,,0.01,Wunderground v.1.15,2013-03-01 21:28:00,
2013-03-01 13:29:00,54.9,49.2,30.32,SE,143,0.0,4.0,81,0.00,,,0.01,Wunderground v.1.15,2013-03-01 21:29:00,
2013-03-01 13:31:00,54.9,49.2,30.31,NE,40,2.0,2.0,81,0.00,,,0.01,Wunderground v.1.15,2013-03-01 21:31:00,
2013-03-01 13:33:00,54.9,48.8,30.31,SE,142,0.0,3.0,80,0.00,,,0.01,Wunderground v.1.15,2013-03-01 21:33:00,
2013-03-01 13:34:00,55.0,49.3,30.31,SE,142,0.0,3.0,81,0.00,,,0.01,Wunderground v.1.15,2013-03-01 21:34:00,
2013-03-01 13:36:00,55.0,49.3,30.31,SE,142,0.0,3.0,81,0.00,,,0.01,Wunderground v.1.15,2013-03-01 21:36:00,
2013-03-01 13:39:00,55.0,49.3,30.31,SE,143,0.0,5.0,81,0.00,,,0.01,Wunderground v.1.15,2013-03-01 21:39:00,
2013-03-01 13:41:00,55.0,48.9,30.31,SE,140,0.0,1.0,80,0.00,,,0.01,Wunderground v.1.15,2013-03-01 21:41:00,
2013-03-01 13:44:00,55.0,48.6,30.31,NE,41,0.0,1.0,79,0.00,,,0.01,Wunderground v.1.15,2013-03-01 21:44:00,
2013-03-01 13:45:00,55.2,48.8,30.31,NNE,30,2.0,2.0,79,0.00,,,0.01,Wunderground v.1.15,2013-03-01 21:45:00,
2013-03-01 13:46:00,55.2,49.1,30.31,South,175,4.0,4.0,80,0.00,,,0.01,Wunderground v.1.15,2013-03-01 21:46:00,
2013-03-01 13:49:00,55.2,48.8,30.31,NE,41,2.0,2.0,79,0.00,,,0.01,Wunderground v.1.15,2013-03-01 21:49:00,
2013-03-01 13:50:00,55.2,48.8,30.31,NE,40,4.0,4.0,79,0.00,,,0.01,Wunderground v.1.15,2013-03-01 21:50:00,
2013-03-01 13:51:00,55.2,49.1,30.31,NNW,332,0.0,4.0,80,0.00,,,0.01,Wunderground v.1.15,2013-03-01 21:51:00,
2013-03-01 13:54:00,55.2,49.5,30.31,NNW,336,0.0,4.0,81,0.00,,,0.01,Wunderground v.1.15,2013-03-01 21:54:00,
2013-03-01 13:55:00,55.2,49.5,30.31,NNE,13,0.0,4.0,81,0.00,,,0.01,Wunderground v.1.15,2013-03-01 21:55:00,
2013-03-01 13:56:00,55.2,49.5,30.31,WNW,294,0.0,4.0,81,0.00,,,0.01,Wunderground v.1.15,2013-03-01 21:56:00,
2013-03-01 13:59:00,55.2,49.1,30.31,NNW,333,1.0,1.0,80,0.00,,,0.01,Wunderground v.1.15,2013-03-01 21:59:00,
2013-03-01 14:00:00,55.2,49.1,30.31,North,349,0.0,1.0,80,0.00,,,0.01,Wunderground v.1.15,2013-03-01 22:00:00,
2013-03-01 14:02:00,55.2,49.1,30.31,North,349,0.0,1.0,80,0.00,,,0.01,Wunderground v.1.15,2013-03-01 22:02:00,
2013-03-01 14:05:00,55.2,49.1,30.31,ESE,113,0.0,4.0,80,0.00,,,0.01,Wunderground v.1.15,2013-03-01 22:05:00,
2013-03-01 14:07:00,55.2,49.1,30.31,ESE,113,0.0,4.0,80,0.00,,,0.01,Wunderground v.1.15,2013-03-01 22:07:00,
2013-03-01 14:10:00,55.2,48.8,30.31,ENE,70,0.0,1.0,79,0.00,,,0.01,Wunderground v.1.15,2013-03-01 22:10:00,
2013-03-01 14:11:00,55.2,48.8,30.31,ENE,67,1.0,1.0,79,0.00,,,0.01,Wunderground v.1.15,2013-03-01 22:11:00,
2013-03-01 14:12:00,55.2,49.1,30.31,SE,125,0.0,1.0,80,0.00,,,0.01,Wunderground v.1.15,2013-03-01 22:12:00,
2013-03-01 14:16:00,55.2,48.8,30.31,SE,130,0.0,6.0,79,0.00,,,0.01,Wunderground v.1.15,2013-03-01 22:16:00,
2013-03-01 14:17:00,55.2,48.8,30.31,North,5,0.0,6.0,79,0.00,,,0.01,Wunderground v.1.15,2013-03-01 22:17:00,
2013-03-01 14:18:00,55.2,48.8,30.31,NNE,14,1.0,6.0,79,0.00,,,0.01,Wunderground v.1.15,2013-03-01 22:18:00,
2013-03-01 14:21:00,55.2,48.8,30.31,North,9,0.0,1.0,79,0.00,,,0.01,Wunderground v.1.15,2013-03-01 22:21:00,
2013-03-01 14:22:00,55.3,48.9,30.31,East,81,2.0,2.0,79,0.00,,,0.01,Wunderground v.1.15,2013-03-01 22:22:00,
2013-03-01 14:23:00,55.3,49.2,30.31,East,82,1.0,2.0,80,0.00,,,0.01,Wunderground v.1.15,2013-03-01 22:23:00,
2013-03-01 14:26:00,55.2,49.1,30.31,NNE,19,4.0,6.0,80,0.00,,,0.01,Wunderground v.1.15,2013-03-01 22:26:00,
2013-03-01 14:28:00,55.2,48.5,30.31,ESE,103,2.0,8.0,78,0.00,,,0.01,Wunderground v.1.15,2013-03-01 22:28:00,
2013-03-01 14:30:00,55.3,48.9,30.31,SE,125,1.0,1.0,79,0.00,,,0.01,Wunderground v.1.15,2013-03-01 22:30:00,
2013-03-01 14:32:00,55.3,48.9,30.31,SSE,162,0.0,4.0,79,0.00,,,0.01,Wunderground v.1.15,2013-03-01 22:32:00,
2013-03-01 14:34:00,55.3,48.9,30.31,ESE,108,1.0,4.0,79,0.00,,,0.01,Wunderground v.1.15,2013-03-01 22:34:00,
2013-03-01 14:35:00,55.3,48.9,30.31,ESE,113,0.0,4.0,79,0.00,,,0.01,Wunderground v.1.15,2013-03-01 22:35:00,
2013-03-01 14:37:00,55.3,48.9,30.31,ESE,113,1.0,4.0,79,0.00,,,0.01,Wunderground v.1.15,2013-03-01 22:37:00,
2013-03-01 14:39:00,55.3,48.9,30.31,ESE,113,0.0,0.0,79,0.00,,,0.01,Wunderground v.1.15,2013-03-01 22:39:00,
2013-03-01 14:41:00,55.3,49.2,30.31,ENE,76,1.0,1.0,80,0.00,,,0.01,Wunderground v.1.15,2013-03-01 22:41:00,
2013-03-01 14:42:00,55.3,48.9,30.31,NNE,26,2.0,2.0,79,0.00,,,0.01,Wunderground v.1.15,2013-03-01 22:42:00,
2013-03-01 14:43:00,55.3,48.9,30.31,NNE,26,0.0,2.0,79,0.00,,,0.01,Wunderground v.1.15,2013-03-01 22:43:00,
2013-03-01 14:45:00,55.3,49.2,30.31,NNE,28,0.0,2.0,80,0.00,,,0.01,Wunderground v.1.15,2013-03-01 22:45:00,
2013-03-01 14:47:00,55.3,49.2,30.31,SSW,206,0.0,5.0,80,0.00,,,0.01,Wunderground v.1.15,2013-03-01 22:47:00,
2013-03-01 14:49:00,55.3,48.9,30.31,SE,146,0.0,5.0,79,0.00,,,0.01,Wunderground v.1.15,2013-03-01 22:49:00,
2013-03-01 14:50:00,55.3,48.9,30.31,NNW,346,1.0,1.0,79,0.00,,,0.01,Wunderground v.1.15,2013-03-01 22:50:00,
2013-03-01 14:52:00,55.3,48.9,30.31,WSW,243,0.0,5.0,79,0.00,,,0.01,Wunderground v.1.15,2013-03-01 22:52:00,
2013-03-01 14:54:00,55.3,48.9,30.31,WSW,243,0.0,5.0,79,0.00,,,0.01,Wunderground v.1.15,2013-03-01 22:54:00,
2013-03-01 14:55:00,55.3,48.9,30.31,WSW,243,1.0,5.0,79,0.00,,,0.01,Wunderground v.1.15,2013-03-01 22:55:00,
2013-03-01 14:57:00,55.3,49.2,30.31,ENE,76,0.0,5.0,80,0.00,,,0.01,Wunderground v.1.15,2013-03-01 22:57:00,
2013-03-01 14:59:00,55.3,49.2,30.31,ENE,76,0.0,0.0,80,0.00,,,0.01,Wunderground v.1.15,2013-03-01 22:59:00,
2013-03-01 15:00:00,55.3,49.2,30.31,ENE,76,0.0,0.0,80,0.00,,,0.01,Wunderground v.1.15,2013-03-01 23:00:00,
2013-03-01 15:02:00,55.2,48.8,30.31,ESE,123,0.0,2.0,79,0.00,,,0.01,Wunderground v.1.15,2013-03-01 23:02:00,
2013-03-01 15:03:00,55.2,48.8,30.31,SE,129,0.0,2.0,79,0.00,,,0.01,Wunderground v.1.15,2013-03-01 23:03:00,
2013-03-01 15:05:00,55.2,49.1,30.31,SE,144,0.0,4.0,80,0.00,,,0.01,Wunderground v.1.15,2013-03-01 23:05:00,
2013-03-01 15:06:00,55.2,48.8,30.31,NE,34,0.0,4.0,79,0.00,,,0.01,Wunderground v.1.15,2013-03-01 23:06:00,
2013-03-01 15:08:00,55.2,49.1,30.31,North,355,1.0,4.0,80,0.00,,,0.01,Wunderground v.1.15,2013-03-01 23:08:00,
2013-03-01 15:10:00,55.2,48.8,30.31,NNE,20,0.0,0.0,79,0.00,,,0.01,Wunderground v.1.15,2013-03-01 23:10:00,
2013-03-01 15:11:00,55.2,49.1,30.31,East,84,0.0,1.0,80,0.00,,,0.01,Wunderground v.1.15,2013-03-01 23:11:00,
2013-03-01 15:13:00,55.2,48.8,30.31,ENE,71,0.0,1.0,79,0.00,,,0.01,Wunderground v.1.15,2013-03-01 23:13:00,
2013-03-01 15:15:00,55.2,49.1,30.31,ENE,71,0.0,1.0,80,0.00,,,0.01,Wunderground v.1.15,2013-03-01 23:15:00,
2013-03-01 15:17:00,55.2,48.8,30.30,ENE,71,0.0,1.0,79,0.00,,,0.01,Wunderground v.1.15,2013-03-01 23:17:00,
2013-03-01 15:19:00,55.2,49.1,30.30,SE,132,0.0,1.0,80,0.00,,,0.01,Wunderground v.1.15,2013-03-01 23:19:00,
2013-03-01 15:20:00,55.2,49.1,30.30,SE,132,0.0,0.0,80,0.00,,,0.01,Wunderground v.1.15,2013-03-01 23:20:00,
2013-03-01 15:23:00,55.2,48.8,30.30,SE,146,1.0,4.0,79,0.00,,,0.01,Wunderground v.1.15,2013-03-01 23:23:00,
2013-03-01 15:24:00,55.2,48.8,30.30,SE,146,0.0,4.0,79,0.00,,,0.01,Wunderground v.1.15,2013-03-01 23:24:00,
2013-03-01 15:26:00,55.2,48.8,30.30,SE,146,0.0,4.0,79,0.00,,,0.01,Wunderground v.1.15,2013-03-01 23:26:00,
2013-03-01 15:28:00,55.2,49.1,30.30,NNE,30,0.0,4.0,80,0.00,,,0.01,Wunderground v.1.15,2013-03-01 23:28:00,
2013-03-01 15:29:00,55.2,48.8,30.30,NNE,30,0.0,4.0,79,0.00,,,0.01,Wunderground v.1.15,2013-03-01 23:29:00,
2013-03-01 15:30:00,55.2,49.1,30.30,NNE,30,0.0,0.0,80,0.00,,,0.01,Wunderground v.1.15,2013-03-01 23:30:00,
2013-03-01 15:31:00,55.2,49.1,30.30,NNE,30,0.0,0.0,80,0.00,,,0.01,Wunderground v.1.15,2013-03-01 23:31:00,
2013-03-01 15:33:00,55.0,48.9,30.30,NNE,30,0.0,1.0,80,0.00,,,0.01,Wunderground v.1.15,2013-03-01 23:33:00,
2013-03-01 15:34:00,55.0,48.9,30.30,NE,37,0.0,1.0,80,0.00,,,0.01,Wunderground v.1.15,2013-03-01 23:34:00,
2013-03-01 15:37:00,55.0,48.3,30.30,ENE,61,2.0,9.0,78,0.00,,,0.01,Wunderground v.1.15,2013-03-01 23:37:00,
2013-03-01 15:38:00,55.2,48.8,30.30,NE,38,1.0,9.0,79,0.00,,,0.01,Wunderground v.1.15,2013-03-01 23:38:00,
2013-03-01 15:39:00,55.2,48.8,30.30,NNE,32,0.0,1.0,79,0.00,,,0.01,Wunderground v.1.15,2013-03-01 23:39:00,
2013-03-01 15:42:00,55.2,49.1,30.30,NE,41,0.0,1.0,80,0.00,,,0.01,Wunderground v.1.15,2013-03-01 23:42:00,
2013-03-01 15:43:00,55.2,48.8,30.30,NE,41,0.0,1.0,79,0.00,,,0.01,Wunderground v.1.15,2013-03-01 23:43:00,
2013-03-01 15:44:00,55.2,48.8,30.30,NNE,22,0.0,1.0,79,0.00,,,0.01,Wunderground v.1.15,2013-03-01 23:44:00,
2013-03-01 15:45:00,55.2,48.8,30.30,NNE,28,9.0,9.0,79,0.00,,,0.01,Wunderground v.1.15,2013-03-01 23:45:00,
2013-03-01 15:47:00,55.2,48.8,30.30,SSW,202,0.0,9.0,79,0.00,,,0.01,Wunderground v.1.15,2013-03-01 23:47:00,
2013-03-01 15:48:00,55.2,48.8,30.30,SSW,202,0.0,9.0,79,0.00,,,0.01,Wunderground v.1.15,2013-03-01 23:48:00,
2013-03-01 15:50:00,55.2,48.8,30.30,SSW,202,0.0,1.0,79,0.00,,,0.01,Wunderground v.1.15,2013-03-01 23:50:00,
2013-03-01 15:51:00,55.2,48.8,30.30,SSW,202,0.0,1.0,79,0.00,,,0.01,Wunderground v.1.15,2013-03-01 23:51:00,
2013-03-01 15:52:00,55.2,49.1,30.30,SSW,202,0.0,1.0,80,0.00,,,0.01,Wunderground v.1.15,2013-03-01 23:52:00,
2013-03-01 15:53:00,55.2,49.1,30.30,SSW,202,0.0,1.0,80,0.00,,,0.01,Wunderground v.1.15,2013-03-01 23:53:00,
2013-03-01 15:56:00,55.0,48.6,30.30,NNE,16,0.0,1.0,79,0.00,,,0.01,Wunderground v.1.15,2013-03-01 23:56:00,
2013-03-01 15:58:00,55.0,48.6,30.30,NNE,16,0.0,1.0,79,0.00,,,0.01,Wunderground v.1.15,2013-03-01 23:58:00,
2013-03-01 16:01:00,55.0,48.3,30.30,NNE,19,0.0,1.0,78,0.00,,,0.01,Wunderground v.1.15,2013-03-02 00:01:00,
2013-03-01 16:03:00,55.0,48.6,30.30,NNE,17,0.0,1.0,79,0.00,,,0.01,Wunderground v.1.15,2013-03-02 00:03:00,
2013-03-01 16:06:00,55.0,48.6,30.30,East,101,0.0,2.0,79,0.00,,,0.01,Wunderground v.1.15,2013-03-02 00:06:00,
2013-03-01 16:08:00,55.0,48.9,30.30,SE,133,0.0,2.0,80,0.00,,,0.01,Wunderground v.1.15,2013-03-02 00:08:00,
2013-03-01 16:12:00,55.0,48.9,30.30,ESE,113,0.0,0.0,80,0.00,,,0.01,Wunderground v.1.15,2013-03-02 00:12:00,
2013-03-01 16:13:00,55.0,48.6,30.30,East,84,0.0,0.0,79,0.00,,,0.01,Wunderground v.1.15,2013-03-02 00:13:00,
2013-03-01 16:14:00,55.0,48.6,30.30,East,84,0.0,0.0,79,0.00,,,0.01,Wunderground v.1.15,2013-03-02 00:14:00,
2013-03-01 16:18:00,54.9,48.5,30.30,East,84,0.0,0.0,79,0.00,,,0.01,Wunderground v.1.15,2013-03-02 00:18:00,
2013-03-01 16:19:00,54.9,48.8,30.30,NNE,13,1.0,1.0,80,0.00,,,0.01,Wunderground v.1.15,2013-03-02 00:19:00,
2013-03-01 16:23:00,54.9,48.8,30.30,NNE,17,0.0,4.0,80,0.00,,,0.01,Wunderground v.1.15,2013-03-02 00:23:00,
2013-03-01 16:24:00,54.9,48.8,30.30,North,360,0.0,4.0,80,0.00,,,0.01,Wunderground v.1.15,2013-03-02 00:24:00,
2013-03-01 16:28:00,54.7,48.6,30.30,ENE,61,0.0,4.0,80,0.00,,,0.01,Wunderground v.1.15,2013-03-02 00:28:00,
2013-03-01 16:29:00,54.7,48.6,30.30,ENE,61,0.0,4.0,80,0.00,,,0.01,Wunderground v.1.15,2013-03-02 00:29:00,
2013-03-01 16:30:00,54.7,48.6,30.30,ENE,61,0.0,0.0,80,0.00,,,0.01,Wunderground v.1.15,2013-03-02 00:30:00,
2013-03-01 16:34:00,54.7,48.6,30.29,NE,48,0.0,0.0,80,0.00,,,0.01,Wunderground v.1.15,2013-03-02 00:34:00,
2013-03-01 16:35:00,54.7,48.6,30.29,NE,48,0.0,0.0,80,0.00,,,0.01,Wunderground v.1.15,2013-03-02 00:35:00,
2013-03-01 16:39:00,54.6,48.6,30.29,SE,136,2.0,2.0,80,0.00,,,0.01,Wunderground v.1.15,2013-03-02 00:39:00,
2013-03-01 16:40:00,54.6,48.6,30.29,SE,136,1.0,1.0,80,0.00,,,0.01,Wunderground v.1.15,2013-03-02 00:40:00,
2013-03-01 16:42:00,54.6,48.6,30.29,North,360,0.0,1.0,80,0.00,,,0.01,Wunderground v.1.15,2013-03-02 00:42:00,
2013-03-01 16:45:00,54.6,48.9,30.29,SE,143,4.0,5.0,81,0.00,,,0.01,Wunderground v.1.15,2013-03-02 00:45:00,
2013-03-01 16:47:00,54.6,48.6,30.29,ESE,117,0.0,5.0,80,0.00,,,0.01,Wunderground v.1.15,2013-03-02 00:47:00,
2013-03-01 16:50:00,54.6,48.6,30.29,South,176,0.0,1.0,80,0.00,,,0.01,Wunderground v.1.15,2013-03-02 00:50:00,
2013-03-01 16:52:00,54.6,48.6,30.29,NNE,31,0.0,3.0,80,0.00,,,0.01,Wunderground v.1.15,2013-03-02 00:52:00,
2013-03-01 16:54:00,54.6,48.6,30.29,SE,126,0.0,4.0,80,0.00,,,0.01,Wunderground v.1.15,2013-03-02 00:54:00,
2013-03-01 16:56:00,54.6,48.6,30.29,SE,144,2.0,6.0,80,0.00,,,0.01,Wunderground v.1.15,2013-03-02 00:56:00,
2013-03-01 16:57:00,54.6,48.6,30.29,North,355,5.0,6.0,80,0.00,,,0.01,Wunderground v.1.15,2013-03-02 00:57:00,
2013-03-01 16:59:00,54.6,48.6,30.29,SE,146,0.0,3.0,80,0.00,,,0.01,Wunderground v.1.15,2013-03-02 00:59:00,
2013-03-01 17:01:00,54.6,48.6,30.30,SSE,151,1.0,3.0,80,0.00,,,0.01,Wunderground v.1.15,2013-03-02 01:01:00,
2013-03-01 17:02:00,54.6,48.6,30.30,SSE,151,0.0,3.0,80,0.00,,,0.01,Wunderground v.1.15,2013-03-02 01:02:00,
2013-03-01 17:03:00,54.6,48.6,30.30,SSE,151,0.0,3.0,80,0.00,,,0.01,Wunderground v.1.15,2013-03-02 01:03:00,
2013-03-01 17:06:00,54.6,48.6,30.30,SSE,161,0.0,3.0,80,0.00,,,0.01,Wunderground v.1.15,2013-03-02 01:06:00,
2013-03-01 17:08:00,54.6,48.2,30.30,NNE,22,0.0,3.0,79,0.00,,,0.01,Wunderground v.1.15,2013-03-02 01:08:00,
2013-03-01 17:11:00,54.6,48.6,30.30,SSE,153,2.0,2.0,80,0.00,,,0.01,Wunderground v.1.15,2013-03-02 01:11:00,
2013-03-01 17:13:00,54.6,48.6,30.30,SE,136,0.0,2.0,80,0.00,,,0.01,Wunderground v.1.15,2013-03-02 01:13:00,
2013-03-01 17:16:00,54.6,48.6,30.30,NNE,31,1.0,4.0,80,0.00,,,0.01,Wunderground v.1.15,2013-03-02 01:16:00,
2013-03-01 17:17:00,54.6,48.6,30.30,SE,146,4.0,4.0,80,0.00,,,0.01,Wunderground v.1.15,2013-03-02 01:17:00,
2013-03-01 17:18:00,54.6,48.6,30.30,SSE,159,2.0,5.0,80,0.00,,,0.01,Wunderground v.1.15,2013-03-02 01:18:00,
2013-03-01 17:20:00,54.4,48.4,30.30,NE,38,1.0,4.0,80,0.00,,,0.01,Wunderground v.1.15,2013-03-02 01:20:00,
2013-03-01 17:22:00,54.4,48.0,30.30,SE,142,5.0,5.0,79,0.00,,,0.01,Wunderground v.1.15,2013-03-02 01:22:00,
2013-03-01 17:23:00,54.4,48.4,30.30,SE,138,0.0,5.0,80,0.00,,,0.01,Wunderground v.1.15,2013-03-02 01:23:00,
2013-03-01 17:25:00,54.4,48.0,30.30,North,351,0.0,5.0,79,0.00,,,0.01,Wunderground v.1.15,2013-03-02 01:25:00,
2013-03-01 17:28:00,54.4,48.0,30.30,ESE,121,1.0,5.0,79,0.00,,,0.01,Wunderground v.1.15,2013-03-02 01:28:00,
2013-03-01 17:29:00,54.4,48.0,30.30,ESE,121,0.0,5.0,79,0.00,,,0.01,Wunderground v.1.15,2013-03-02 01:29:00,
2013-03-01 17:30:00,54.4,48.0,30.30,ESE,121,0.0,1.0,79,0.00,,,0.01,Wunderground v.1.15,2013-03-02 01:30:00,
2013-03-01 17:33:00,54.4,48.0,30.31,ESE,121,0.0,4.0,79,0.00,,,0.01,Wunderground v.1.15,2013-03-02 01:33:00,
2013-03-01 17:34:00,54.4,48.0,30.31,NNW,329,6.0,6.0,79,0.00,,,0.01,Wunderground v.1.15,2013-03-02 01:34:00,
2013-03-01 17:36:00,54.4,47.7,30.31,NE,36,2.0,6.0,78,0.00,,,0.01,Wunderground v.1.15,2013-03-02 01:36:00,
2013-03-01 17:38:00,54.4,47.7,30.31,ESE,119,1.0,6.0,78,0.00,,,0.01,Wunderground v.1.15,2013-03-02 01:38:00,
2013-03-01 17:40:00,54.4,48.0,30.31,NE,47,1.0,1.0,79,0.00,,,0.01,Wunderground v.1.15,2013-03-02 01:40:00,
2013-03-01 17:41:00,54.4,48.0,30.31,NE,37,0.0,1.0,79,0.00,,,0.01,Wunderground v.1.15,2013-03-02 01:41:00,
2013-03-01 17:42:00,54.4,48.0,30.31,SE,132,0.0,1.0,79,0.00,,,0.01,Wunderground v.1.15,2013-03-02 01:42:00,
2013-03-01 17:44:00,54.4,48.0,30.31,NE,37,2.0,4.0,79,0.00,,,0.01,Wunderground v.1.15,2013-03-02 01:44:00,
2013-03-01 17:46:00,54.4,48.0,30.30,ESE,105,0.0,4.0,79,0.00,,,0.01,Wunderground v.1.15,2013-03-02 01:46:00,
2013-03-01 17:48:00,54.4,48.0,30.30,NNE,13,4.0,4.0,79,0.00,,,0.01,Wunderground v.1.15,2013-03-02 01:48:00,
2013-03-01 17:49:00,54.4,48.0,30.30,NE,40,1.0,4.0,79,0.00,,,0.01,Wunderground v.1.15,2013-03-02 01:49:00,
2013-03-01 17:51:00,54.3,47.9,30.30,NE,40,0.0,1.0,79,0.00,,,0.01,Wunderground v.1.15,2013-03-02 01:51:00,
2013-03-01 17:52:00,54.3,47.9,30.30,NE,40,0.0,1.0,79,0.00,,,0.01,Wunderground v.1.15,2013-03-02 01:52:00,
2013-03-01 17:53:00,54.3,47.9,30.30,East,94,0.0,1.0,79,0.00,,,0.01,Wunderground v.1.15,2013-03-02 01:53:00,
2013-03-01 17:54:00,54.3,47.9,30.30,SE,142,1.0,1.0,79,0.00,,,0.01,Wunderground v.1.15,2013-03-02 01:54:00,
2013-03-01 17:57:00,54.3,47.9,30.30,ESE,121,0.0,3.0,79,0.00,,,0.01,Wunderground v.1.15,2013-03-02 01:57:00,
2013-03-01 17:59:00,54.1,47.7,30.30,ESE,121,0.0,3.0,79,0.00,,,0.01,Wunderground v.1.15,2013-03-02 01:59:00,
2013-03-01 18:00:00,54.1,47.7,30.30,SE,137,0.0,1.0,79,0.00,,,0.01,Wunderground v.1.15,2013-03-02 02:00:00,
2013-03-01 18:02:00,54.1,47.7,30.31,SE,137,0.0,1.0,79,0.00,,,0.01,Wunderground v.1.15,2013-03-02 02:02:00,
2013-03-01 18:03:00,54.1,47.7,30.31,SE,137,0.0,1.0,79,0.00,,,0.01,Wunderground v.1.15,2013-03-02 02:03:00,
2013-03-01 18:04:00,54.1,47.7,30.31,SE,137,1.0,1.0,79,0.00,,,0.01,Wunderground v.1.15,2013-03-02 02:04:00,
2013-03-01 18:08:00,54.1,47.7,30.31,SE,124,0.0,1.0,79,0.00,,,0.01,Wunderground v.1.15,2013-03-02 02:08:00,
2013-03-01 18:10:00,54.1,48.1,30.31,ESE,106,0.0,1.0,80,0.00,,,0.01,Wunderground v.1.15,2013-03-02 02:10:00,
2013-03-01 18:13:00,54.0,47.6,30.31,North,360,0.0,2.0,79,0.00,,,0.01,Wunderground v.1.15,2013-03-02 02:13:00,
2013-03-01 18:14:00,54.0,48.0,30.31,NE,41,2.0,5.0,80,0.00,,,0.01,Wunderground v.1.15,2013-03-02 02:14:00,
2013-03-01 18:15:00,54.0,48.0,30.31,NE,40,0.0,5.0,80,0.00,,,0.01,Wunderground v.1.15,2013-03-02 02:15:00,
2013-03-01 18:19:00,54.0,47.6,30.31,NE,34,0.0,5.0,79,0.00,,,0.01,Wunderground v.1.15,2013-03-02 02:19:00,
2013-03-01 18:20:00,54.0,48.0,30.31,NNE,19,0.0,1.0,80,0.00,,,0.01,Wunderground v.1.15,2013-03-02 02:20:00,
2013-03-01 18:24:00,54.0,48.0,30.31,East,92,0.0,1.0,80,0.00,,,0.01,Wunderground v.1.15,2013-03-02 02:24:00,
2013-03-01 18:25:00,54.0,48.0,30.31,East,94,0.0,1.0,80,0.00,,,0.01,Wunderground v.1.15,2013-03-02 02:25:00,
2013-03-01 18:27:00,54.0,48.0,30.31,East,93,0.0,1.0,80,0.00,,,0.01,Wunderground v.1.15,2013-03-02 02:27:00,
2013-03-01 18:29:00,53.8,47.8,30.31,East,98,0.0,1.0,80,0.00,,,0.01,Wunderground v.1.15,2013-03-02 02:29:00,
2013-03-01 18:30:00,53.8,47.8,30.31,East,95,0.0,0.0,80,0.00,,,0.01,Wunderground v.1.15,2013-03-02 02:30:00,
2013-03-01 18:31:00,53.8,48.1,30.31,East,95,0.0,0.0,81,0.00,,,0.01,Wunderground v.1.15,2013-03-02 02:31:00,
2013-03-01 18:32:00,53.8,48.1,30.31,East,95,0.0,0.0,81,0.00,,,0.01,Wunderground v.1.15,2013-03-02 02:32:00,
2013-03-01 18:35:00,53.8,47.8,30.31,ESE,108,1.0,2.0,80,0.00,,,0.01,Wunderground v.1.15,2013-03-02 02:35:00,
2013-03-01 18:36:00,53.8,47.8,30.31,SE,125,0.0,2.0,80,0.00,,,0.01,Wunderground v.1.15,2013-03-02 02:36:00,
2013-03-01 18:37:00,53.8,47.8,30.31,SE,125,0.0,2.0,80,0.00,,,0.01,Wunderground v.1.15,2013-03-02 02:37:00,
2013-03-01 18:41:00,53.8,47.8,30.31,NE,48,3.0,5.0,80,0.00,,,0.01,Wunderground v.1.15,2013-03-02 02:41:00,
2013-03-01 18:42:00,53.8,47.8,30.31,SSE,167,0.0,5.0,80,0.00,,,0.01,Wunderground v.1.15,2013-03-02 02:42:00,
2013-03-01 18:43:00,53.8,47.8,30.31,SSE,167,0.0,5.0,80,0.00,,,0.01,Wunderground v.1.15,2013-03-02 02:43:00,
2013-03-01 18:46:00,53.8,48.1,30.31,NE,53,0.0,5.0,81,0.00,,,0.01,Wunderground v.1.15,2013-03-02 02:46:00,
2013-03-01 18:47:00,53.8,48.1,30.31,NE,53,0.0,5.0,81,0.00,,,0.01,Wunderground v.1.15,2013-03-02 02:47:00,
2013-03-01 18:48:00,53.7,48.0,30.31,NE,53,0.0,5.0,81,0.00,,,0.01,Wunderground v.1.15,2013-03-02 02:48:00,
2013-03-01 18:52:00,53.7,48.0,30.31,NE,53,0.0,1.0,81,0.00,,,0.01,Wunderground v.1.15,2013-03-02 02:52:00,
2013-03-01 18:53:00,53.7,48.0,30.31,NE,53,0.0,1.0,81,0.00,,,0.01,Wunderground v.1.15,2013-03-02 02:53:00,
2013-03-01 18:58:00,53.6,47.9,30.31,SE,131,1.0,2.0,81,0.00,,,0.01,Wunderground v.1.15,2013-03-02 02:58:00,
2013-03-01 19:03:00,53.6,47.6,30.31,NE,34,0.0,1.0,80,0.00,,,0.01,Wunderground v.1.15,2013-03-02 03:03:00,
2013-03-01 19:08:00,53.6,47.9,30.31,South,171,0.0,2.0,81,0.00,,,0.01,Wunderground v.1.15,2013-03-02 03:08:00,
2013-03-01 19:10:00,53.6,47.9,30.31,South,171,0.0,0.0,81,0.00,,,0.01,Wunderground v.1.15,2013-03-02 03:10:00,
2013-03-01 19:14:00,53.6,47.6,30.31,NNW,334,0.0,1.0,80,0.00,,,0.01,Wunderground v.1.15,2013-03-02 03:14:00,
2013-03-01 19:16:00,53.6,47.9,30.31,NNW,340,0.0,1.0,81,0.00,,,0.01,Wunderground v.1.15,2013-03-02 03:16:00,
2013-03-01 19:19:00,53.6,47.9,30.31,NNE,27,2.0,2.0,81,0.00,,,0.01,Wunderground v.1.15,2013-03-02 03:19:00,
2013-03-01 19:22:00,53.4,47.7,30.31,ENE,67,0.0,0.0,81,0.00,,,0.01,Wunderground v.1.15,2013-03-02 03:22:00,
2013-03-01 19:24:00,53.4,47.7,30.31,ENE,67,0.0,0.0,81,0.00,,,0.01,Wunderground v.1.15,2013-03-02 03:24:00,
2013-03-01 19:28:00,53.4,47.7,30.31,NE,51,0.0,2.0,81,0.00,,,0.01,Wunderground v.1.15,2013-03-02 03:28:00,
2013-03-01 19:30:00,53.4,47.7,30.31,ESE,119,0.0,0.0,81,0.00,,,0.01,Wunderground v.1.15,2013-03-02 03:30:00,
2013-03-01 19:33:00,53.4,47.7,30.31,East,82,0.0,1.0,81,0.00,,,0.01,Wunderground v.1.15,2013-03-02 03:33:00,
2013-03-01 19:35:00,53.4,47.7,30.31,NE,47,0.0,1.0,81,0.00,,,0.01,Wunderground v.1.15,2013-03-02 03:35:00,
2013-03-01 19:36:00,53.4,47.7,30.31,NE,47,0.0,1.0,81,0.00,,,0.01,Wunderground v.1.15,2013-03-02 03:36:00,
2013-03-01 19:38:00,53.4,47.7,30.31,East,98,0.0,2.0,81,0.00,,,0.01,Wunderground v.1.15,2013-03-02 03:38:00,
2013-03-01 19:40:00,53.4,47.7,30.31,NNE,28,0.0,0.0,81,0.00,,,0.01,Wunderground v.1.15,2013-03-02 03:40:00,
2013-03-01 19:41:00,53.4,47.7,30.31,NNE,28,0.0,0.0,81,0.00,,,0.01,Wunderground v.1.15,2013-03-02 03:41:00,
2013-03-01 19:43:00,53.3,47.6,30.31,South,172,2.0,2.0,81,0.00,,,0.01,Wunderground v.1.15,2013-03-02 03:43:00,
2013-03-01 19:45:00,53.3,47.6,30.31,SSE,153,4.0,4.0,81,0.00,,,0.01,Wunderground v.1.15,2013-03-02 03:45:00,
2013-03-01 19:47:00,53.3,47.9,30.30,East,87,0.0,6.0,82,0.00,,,0.01,Wunderground v.1.15,2013-03-02 03:47:00,
2013-03-01 19:48:00,53.3,47.9,30.30,South,170,0.0,6.0,82,0.00,,,0.01,Wunderground v.1.15,2013-03-02 03:48:00,
2013-03-01 19:51:00,53.3,47.6,30.30,South,170,1.0,2.0,81,0.00,,,0.01,Wunderground v.1.15,2013-03-02 03:51:00,
2013-03-01 19:52:00,53.3,47.6,30.30,SSE,153,0.0,2.0,81,0.00,,,0.01,Wunderground v.1.15,2013-03-02 03:52:00,
2013-03-01 19:53:00,53.3,47.6,30.30,SSE,153,0.0,2.0,81,0.00,,,0.01,Wunderground v.1.15,2013-03-02 03:53:00,
2013-03-01 19:57:00,53.3,47.6,30.30,NE,37,0.0,3.0,81,0.00,,,0.01,Wunderground v.1.15,2013-03-02 03:57:00,
2013-03-01 19:58:00,53.3,47.6,30.30,ENE,74,1.0,3.0,81,0.00,,,0.01,Wunderground v.1.15,2013-03-02 03:58:00,
2013-03-01 20:02:00,53.1,47.4,30.30,NNE,28,0.0,0.0,81,0.00,,,0.01,Wunderground v.1.15,2013-03-02 04:02:00,
2013-03-01 20:04:00,53.1,47.4,30.30,NNE,28,0.0,1.0,81,0.00,,,0.01,Wunderground v.1.15,2013-03-02 04:04:00,
2013-03-01 20:07:00,53.1,47.4,30.30,East,99,0.0,4.0,81,0.00,,,0.01,Wunderground v.1.15,2013-03-02 04:07:00,
2013-03-01 20:08:00,53.1,47.4,30.30,South,180,0.0,4.0,81,0.00,,,0.01,Wunderground v.1.15,2013-03-02 04:08:00,
2013-03-01 20:10:00,53.1,47.4,30.30,ENE,65,0.0,0.0,81,0.00,,,0.01,Wunderground v.1.15,2013-03-02 04:10:00,
2013-03-01 20:12:00,53.1,47.4,30.30,NE,52,0.0,1.0,81,0.00,,,0.01,Wunderground v.1.15,2013-03-02 04:12:00,
2013-03-01 20:13:00,53.1,47.4,30.30,West,275,1.0,1.0,81,0.00,,,0.01,Wunderground v.1.15,2013-03-02 04:13:00,
2013-03-01 20:14:00,53.1,47.4,30.30,South,191,0.0,2.0,81,0.00,,,0.01,Wunderground v.1.15,2013-03-02 04:14:00,
2013-03-01 20:15:00,53.1,47.4,30.30,South,191,0.0,2.0,81,0.00,,,0.01,Wunderground v.1.15,2013-03-02 04:15:00,
2013-03-01 20:17:00,53.1,47.4,30.29,South,191,0.0,2.0,81,0.00,,,0.01,Wunderground v.1.15,2013-03-02 04:17:00,
2013-03-01 20:19:00,53.1,47.4,30.29,South,191,0.0,2.0,81,0.00,,,0.01,Wunderground v.1.15,2013-03-02 04:19:00,
2013-03-01 20:20:00,53.1,47.4,30.29,East,86,1.0,1.0,81,0.00,,,0.01,Wunderground v.1.15,2013-03-02 04:20:00,
2013-03-01 20:23:00,53.1,47.4,30.29,NNE,30,0.0,1.0,81,0.00,,,0.01,Wunderground v.1.15,2013-03-02 04:23:00,
2013-03-01 20:24:00,53.1,47.4,30.29,NNE,30,0.0,1.0,81,0.00,,,0.01,Wunderground v.1.15,2013-03-02 04:24:00,
2013-03-01 20:26:00,53.0,47.3,30.29,ESE,109,0.0,1.0,81,0.00,,,0.01,Wunderground v.1.15,2013-03-02 04:26:00,
2013-03-01 20:29:00,53.0,47.3,30.29,East,80,1.0,2.0,81,0.00,,,0.01,Wunderground v.1.15,2013-03-02 04:29:00,
2013-03-01 20:31:00,53.0,47.7,30.29,SE,137,0.0,0.0,82,0.00,,,0.01,Wunderground v.1.15,2013-03-02 04:31:00,
2013-03-01 20:34:00,53.0,47.7,30.29,SSW,192,0.0,1.0,82,0.00,,,0.01,Wunderground v.1.15,2013-03-02 04:34:00,
2013-03-01 20:35:00,53.0,47.7,30.29,SSW,192,1.0,1.0,82,0.00,,,0.01,Wunderground v.1.15,2013-03-02 04:35:00,
2013-03-01 20:36:00,53.0,47.3,30.29,SSW,192,0.0,1.0,81,0.00,,,0.01,Wunderground v.1.15,2013-03-02 04:36:00,
2013-03-01 20:40:00,52.8,47.1,30.29,South,190,0.0,1.0,81,0.00,,,0.01,Wunderground v.1.15,2013-03-02 04:40:00,
2013-03-01 20:41:00,52.8,47.1,30.29,South,190,0.0,1.0,81,0.00,,,0.01,Wunderground v.1.15,2013-03-02 04:41:00,
2013-03-01 20:46:00,52.8,47.1,30.29,NNW,337,0.0,4.0,81,0.00,,,0.01,Wunderground v.1.15,2013-03-02 04:46:00,
2013-03-01 20:48:00,53.0,47.3,30.29,NNW,337,0.0,4.0,81,0.00,,,0.01,Wunderground v.1.15,2013-03-02 04:48:00,
2013-03-01 20:51:00,53.0,47.3,30.29,NNW,337,0.0,0.0,81,0.00,,,0.01,Wunderground v.1.15,2013-03-02 04:51:00,
2013-03-01 20:52:00,53.0,47.3,30.29,NNW,337,0.0,0.0,81,0.00,,,0.01,Wunderground v.1.15,2013-03-02 04:52:00,
2013-03-01 20:53:00,52.8,47.1,30.29,NNW,337,0.0,0.0,81,0.00,,,0.01,Wunderground v.1.15,2013-03-02 04:53:00,
2013-03-01 20:57:00,52.8,47.5,30.29,NNW,337,0.0,0.0,82,0.00,,,0.01,Wunderground v.1.15,2013-03-02 04:57:00,
2013-03-01 20:58:00,52.8,47.5,30.29,NNW,337,0.0,0.0,82,0.00,,,0.01,Wunderground v.1.15,2013-03-02 04:58:00,
2013-03-01 21:00:00,52.8,47.1,30.29,SSW,204,0.0,0.0,81,0.00,,,0.01,Wunderground v.1.15,2013-03-02 05:00:00,
2013-03-01 21:01:00,52.8,47.1,30.29,SSW,204,0.0,0.0,81,0.00,,,0.01,Wunderground v.1.15,2013-03-02 05:01:00,
2013-03-01 21:05:00,52.8,47.1,30.29,SSW,204,0.0,0.0,81,0.00,,,0.01,Wunderground v.1.15,2013-03-02 05:05:00,
2013-03-01 21:06:00,52.8,47.1,30.29,SSW,204,0.0,0.0,81,0.00,,,0.01,Wunderground v.1.15,2013-03-02 05:06:00,
2013-03-01 21:10:00,52.8,47.5,30.29,SSW,204,0.0,0.0,82,0.00,,,0.01,Wunderground v.1.15,2013-03-02 05:10:00,
2013-03-01 21:12:00,52.8,47.5,30.29,SSW,204,1.0,1.0,82,0.00,,,0.01,Wunderground v.1.15,2013-03-02 05:12:00,
2013-03-01 21:16:00,52.7,47.4,30.30,SSW,204,0.0,1.0,82,0.00,,,0.01,Wunderground v.1.15,2013-03-02 05:16:00,
2013-03-01 21:17:00,52.7,47.4,30.30,SSW,204,0.0,1.0,82,0.00,,,0.01,Wunderground v.1.15,2013-03-02 05:17:00,
2013-03-01 21:18:00,52.7,47.7,30.30,SSW,204,0.0,1.0,83,0.00,,,0.01,Wunderground v.1.15,2013-03-02 05:18:00,
2013-03-01 21:21:00,52.7,47.4,30.30,SSW,204,0.0,0.0,82,0.00,,,0.01,Wunderground v.1.15,2013-03-02 05:21:00,
2013-03-01 21:23:00,52.7,47.4,30.30,SSW,204,0.0,1.0,82,0.00,,,0.01,Wunderground v.1.15,2013-03-02 05:23:00,
2013-03-01 21:26:00,52.7,47.4,30.30,SSW,204,0.0,1.0,82,0.00,,,0.01,Wunderground v.1.15,2013-03-02 05:26:00,
2013-03-01 21:28:00,52.5,47.2,30.30,SSW,204,0.0,1.0,82,0.00,,,0.01,Wunderground v.1.15,2013-03-02 05:28:00,
2013-03-01 21:29:00,52.5,47.2,30.30,NNE,30,1.0,1.0,82,0.00,,,0.01,Wunderground v.1.15,2013-03-02 05:29:00,
2013-03-01 21:31:00,52.5,47.2,30.29,NNE,30,0.0,1.0,82,0.00,,,0.01,Wunderground v.1.15,2013-03-02 05:31:00,
2013-03-01 21:33:00,52.5,47.2,30.29,NNE,30,0.0,1.0,82,0.00,,,0.01,Wunderground v.1.15,2013-03-02 05:33:00,
2013-03-01 21:35:00,52.5,47.2,30.29,NNE,30,0.0,1.0,82,0.00,,,0.01,Wunderground v.1.15,2013-03-02 05:35:00,
2013-03-01 21:36:00,52.5,47.2,30.29,NNE,30,0.0,1.0,82,0.00,,,0.01,Wunderground v.1.15,2013-03-02 05:36:00,
2013-03-01 21:38:00,52.5,47.2,30.29,NNE,30,0.0,1.0,82,0.00,,,0.01,Wunderground v.1.15,2013-03-02 05:38:00,
2013-03-01 21:40:00,52.5,47.2,30.29,NNE,30,0.0,0.0,82,0.00,,,0.01,Wunderground v.1.15,2013-03-02 05:40:00,
2013-03-01 21:42:00,52.5,47.5,30.29,NNE,30,0.0,0.0,83,0.00,,,0.01,Wunderground v.1.15,2013-03-02 05:42:00,
2013-03-01 21:43:00,52.5,47.5,30.29,NNE,30,0.0,0.0,83,0.00,,,0.01,Wunderground v.1.15,2013-03-02 05:43:00,
2013-03-01 21:45:00,52.5,47.5,30.29,NNE,30,0.0,0.0,83,0.00,,,0.01,Wunderground v.1.15,2013-03-02 05:45:00,
2013-03-01 21:46:00,52.5,47.5,30.29,NNE,30,0.0,0.0,83,0.00,,,0.01,Wunderground v.1.15,2013-03-02 05:46:00,
2013-03-01 21:47:00,52.5,47.2,30.29,NNE,30,0.0,0.0,82,0.00,,,0.01,Wunderground v.1.15,2013-03-02 05:47:00,
2013-03-01 21:49:00,52.5,47.5,30.29,SE,146,0.0,1.0,83,0.00,,,0.01,Wunderground v.1.15,2013-03-02 05:49:00,
2013-03-01 21:51:00,52.5,47.2,30.29,NE,46,0.0,0.0,82,0.00,,,0.01,Wunderground v.1.15,2013-03-02 05:51:00,
2013-03-01 21:52:00,52.5,47.2,30.29,NE,46,0.0,0.0,82,0.00,,,0.01,Wunderground v.1.15,2013-03-02 05:52:00,
2013-03-01 21:54:00,52.5,47.2,30.29,NE,52,0.0,2.0,82,0.00,,,0.01,Wunderground v.1.15,2013-03-02 05:54:00,
2013-03-01 21:56:00,52.5,47.2,30.29,NE,51,0.0,2.0,82,0.00,,,0.01,Wunderground v.1.15,2013-03-02 05:56:00,
2013-03-01 21:57:00,52.5,47.2,30.29,NE,52,0.0,2.0,82,0.00,,,0.01,Wunderground v.1.15,2013-03-02 05:57:00,
2013-03-01 21:59:00,52.5,47.2,30.29,NE,52,0.0,2.0,82,0.00,,,0.01,Wunderground v.1.15,2013-03-02 05:59:00,
2013-03-01 22:01:00,52.5,47.2,30.29,NE,52,0.0,0.0,82,0.00,,,0.01,Wunderground v.1.15,2013-03-02 06:01:00,
2013-03-01 22:03:00,52.4,47.1,30.29,NE,52,0.0,0.0,82,0.00,,,0.01,Wunderground v.1.15,2013-03-02 06:03:00,
2013-03-01 22:05:00,52.4,47.1,30.29,NE,52,0.0,0.0,82,0.00,,,0.01,Wunderground v.1.15,2013-03-02 06:05:00,
2013-03-01 22:06:00,52.4,47.1,30.29,East,84,0.0,0.0,82,0.00,,,0.01,Wunderground v.1.15,2013-03-02 06:06:00,
2013-03-01 22:08:00,52.4,47.4,30.29,East,84,0.0,0.0,83,0.00,,,0.01,Wunderground v.1.15,2013-03-02 06:08:00,
2013-03-01 22:10:00,52.4,47.1,30.29,East,84,0.0,0.0,82,0.00,,,0.01,Wunderground v.1.15,2013-03-02 06:10:00,
2013-03-01 22:12:00,52.4,47.1,30.29,East,98,0.0,0.0,82,0.00,,,0.01,Wunderground v.1.15,2013-03-02 06:12:00,
2013-03-01 22:13:00,52.4,47.1,30.29,East,98,0.0,0.0,82,0.00,,,0.01,Wunderground v.1.15,2013-03-02 06:13:00,
2013-03-01 22:15:00,52.4,47.1,30.29,East,98,0.0,0.0,82,0.00,,,0.01,Wunderground v.1.15,2013-03-02 06:15:00,
2013-03-01 22:17:00,52.4,47.1,30.30,East,98,0.0,0.0,82,0.00,,,0.01,Wunderground v.1.15,2013-03-02 06:17:00,
2013-03-01 22:18:00,52.4,47.1,30.30,East,98,0.0,0.0,82,0.00,,,0.01,Wunderground v.1.15,2013-03-02 06:18:00,
2013-03-01 22:21:00,52.4,46.7,30.30,SSE,165,0.0,4.0,81,0.00,,,0.01,Wunderground v.1.15,2013-03-02 06:21:00,
2013-03-01 22:22:00,52.4,46.7,30.30,SSE,165,0.0,4.0,81,0.00,,,0.01,Wunderground v.1.15,2013-03-02 06:22:00,
2013-03-01 22:23:00,52.4,47.1,30.30,SSE,165,0.0,4.0,82,0.00,,,0.01,Wunderground v.1.15,2013-03-02 06:23:00,
2013-03-01 22:26:00,52.4,47.1,30.30,South,169,0.0,4.0,82,0.00,,,0.01,Wunderground v.1.15,2013-03-02 06:26:00,
2013-03-01 22:27:00,52.4,47.1,30.30,South,169,0.0,4.0,82,0.00,,,0.01,Wunderground v.1.15,2013-03-02 06:27:00,
2013-03-01 22:29:00,52.4,46.7,30.30,South,169,0.0,4.0,81,0.00,,,0.01,Wunderground v.1.15,2013-03-02 06:29:00,
2013-03-01 22:32:00,52.4,47.1,30.29,South,169,0.0,0.0,82,0.00,,,0.01,Wunderground v.1.15,2013-03-02 06:32:00,
2013-03-01 22:33:00,52.4,47.1,30.29,South,169,0.0,0.0,82,0.00,,,0.01,Wunderground v.1.15,2013-03-02 06:33:00,
2013-03-01 22:34:00,52.4,47.1,30.29,South,169,0.0,0.0,82,0.00,,,0.01,Wunderground v.1.15,2013-03-02 06:34:00,
2013-03-01 22:38:00,52.4,46.7,30.29,NE,42,0.0,1.0,81,0.00,,,0.01,Wunderground v.1.15,2013-03-02 06:38:00,
2013-03-01 22:39:00,52.4,46.7,30.29,NE,42,0.0,1.0,81,0.00,,,0.01,Wunderground v.1.15,2013-03-02 06:39:00,
2013-03-01 22:40:00,52.4,46.7,30.29,NE,42,0.0,0.0,81,0.00,,,0.01,Wunderground v.1.15,2013-03-02 06:40:00,
2013-03-01 22:43:00,52.4,46.7,30.29,East,82,0.0,1.0,81,0.00,,,0.01,Wunderground v.1.15,2013-03-02 06:43:00,
2013-03-01 22:44:00,52.4,47.1,30.29,East,82,0.0,1.0,82,0.00,,,0.01,Wunderground v.1.15,2013-03-02 06:44:00,
2013-03-01 22:45:00,52.4,46.7,30.29,East,82,0.0,1.0,81,0.00,,,0.01,Wunderground v.1.15,2013-03-02 06:45:00,
2013-03-01 22:48:00,52.4,46.7,30.29,East,82,0.0,1.0,81,0.00,,,0.01,Wunderground v.1.15,2013-03-02 06:48:00,
2013-03-01 22:49:00,52.4,46.7,30.29,East,82,0.0,0.0,81,0.00,,,0.01,Wunderground v.1.15,2013-03-02 06:49:00,
2013-03-01 22:50:00,52.4,46.7,30.29,East,82,0.0,0.0,81,0.00,,,0.01,Wunderground v.1.15,2013-03-02 06:50:00,
2013-03-01 22:51:00,52.4,46.7,30.29,East,82,0.0,1.0,81,0.00,,,0.01,Wunderground v.1.15,2013-03-02 06:51:00,
2013-03-01 22:54:00,52.4,46.7,30.29,East,87,0.0,2.0,81,0.00,,,0.01,Wunderground v.1.15,2013-03-02 06:54:00,
2013-03-01 22:56:00,52.4,46.7,30.29,ESE,119,0.0,2.0,81,0.00,,,0.01,Wunderground v.1.15,2013-03-02 06:56:00,
2013-03-01 22:59:00,52.4,46.7,30.29,ESE,119,0.0,2.0,81,0.00,,,0.01,Wunderground v.1.15,2013-03-02 06:59:00,
2013-03-01 23:01:00,52.4,46.7,30.28,ESE,119,0.0,0.0,81,0.00,,,0.01,Wunderground v.1.15,2013-03-02 07:01:00,
2013-03-01 23:05:00,52.4,46.7,30.28,ESE,119,0.0,0.0,81,0.00,,,0.01,Wunderground v.1.15,2013-03-02 07:05:00,
2013-03-01 23:06:00,52.4,46.7,30.28,ESE,119,0.0,0.0,81,0.00,,,0.01,Wunderground v.1.15,2013-03-02 07:06:00,
2013-03-01 23:07:00,52.2,46.5,30.28,ESE,119,0.0,0.0,81,0.00,,,0.01,Wunderground v.1.15,2013-03-02 07:07:00,
2013-03-01 23:10:00,52.2,46.5,30.28,ESE,119,0.0,0.0,81,0.00,,,0.01,Wunderground v.1.15,2013-03-02 07:10:00,
2013-03-01 23:12:00,52.2,46.5,30.28,ESE,119,0.0,0.0,81,0.00,,,0.01,Wunderground v.1.15,2013-03-02 07:12:00,
2013-03-01 23:15:00,52.2,46.5,30.28,ESE,119,0.0,0.0,81,0.00,,,0.01,Wunderground v.1.15,2013-03-02 07:15:00,
2013-03-01 23:17:00,52.2,46.5,30.28,ESE,119,0.0,1.0,81,0.00,,,0.01,Wunderground v.1.15,2013-03-02 07:17:00,
2013-03-01 23:18:00,52.2,46.5,30.28,ESE,119,0.0,1.0,81,0.00,,,0.01,Wunderground v.1.15,2013-03-02 07:18:00,
2013-03-01 23:20:00,52.2,46.5,30.28,ESE,119,0.0,0.0,81,0.00,,,0.01,Wunderground v.1.15,2013-03-02 07:20:00,
2013-03-01 23:23:00,52.2,46.5,30.28,SE,136,0.0,0.0,81,0.00,,,0.01,Wunderground v.1.15,2013-03-02 07:23:00,
2013-03-01 23:24:00,52.2,46.2,30.28,SE,136,0.0,1.0,80,0.00,,,0.01,Wunderground v.1.15,2013-03-02 07:24:00,
2013-03-01 23:25:00,52.2,46.2,30.28,SE,136,0.0,1.0,80,0.00,,,0.01,Wunderground v.1.15,2013-03-02 07:25:00,
2013-03-01 23:28:00,52.2,46.5,30.28,SE,136,0.0,1.0,81,0.00,,,0.01,Wunderground v.1.15,2013-03-02 07:28:00,
2013-03-01 23:29:00,52.2,46.5,30.28,SE,136,0.0,1.0,81,0.00,,,0.01,Wunderground v.1.15,2013-03-02 07:29:00,
2013-03-01 23:31:00,52.2,46.5,30.28,SE,136,0.0,0.0,81,0.00,,,0.01,Wunderground v.1.15,2013-03-02 07:31:00,
2013-03-01 23:33:00,52.1,46.4,30.28,SE,136,0.0,0.0,81,0.00,,,0.01,Wunderground v.1.15,2013-03-02 07:33:00,
2013-03-01 23:35:00,52.1,46.4,30.28,SE,136,0.0,0.0,81,0.00,,,0.01,Wunderground v.1.15,2013-03-02 07:35:00,
2013-03-01 23:36:00,52.1,46.4,30.28,SE,136,0.0,0.0,81,0.00,,,0.01,Wunderground v.1.15,2013-03-02 07:36:00,
2013-03-01 23:40:00,52.1,46.1,30.28,SE,136,0.0,0.0,80,0.00,,,0.01,Wunderground v.1.15,2013-03-02 07:40:00,
2013-03-01 23:42:00,52.1,46.1,30.28,NE,54,0.0,1.0,80,0.00,,,0.01,Wunderground v.1.15,2013-03-02 07:42:00,
2013-03-01 23:45:00,52.1,46.4,30.28,SE,146,0.0,1.0,81,0.00,,,0.01,Wunderground v.1.15,2013-03-02 07:45:00,
2013-03-01 23:47:00,52.1,46.4,30.28,SE,146,0.0,1.0,81,0.00,,,0.01,Wunderground v.1.15,2013-03-02 07:47:00,
2013-03-01 23:50:00,52.1,46.4,30.28,SE,146,0.0,0.0,81,0.00,,,0.01,Wunderground v.1.15,2013-03-02 07:50:00,
2013-03-01 23:51:00,52.1,46.4,30.28,SE,146,0.0,0.0,81,0.00,,,0.01,Wunderground v.1.15,2013-03-02 07:51:00,
2013-03-01 23:52:00,51.9,46.3,30.28,SE,146,0.0,0.0,81,0.00,,,0.01,Wunderground v.1.15,2013-03-02 07:52:00,
2013-03-01 23:56:00,51.9,46.3,30.28,NNE,32,0.0,1.0,81,0.00,,,0.01,Wunderground v.1.15,2013-03-02 07:56:00,
2013-03-01 23:57:00,51.9,46.3,30.28,NNE,32,0.0,1.0,81,0.00,,,0.01,Wunderground v.1.15,2013-03-02 07:57:00,